| time (UTC) | temp F | wind direction | speed knots | gust knots | rain 1hr in | rain 24hr in | rain mn in | humidity % | barometer mb |
| 20260505184811 | 35 | 30 | 3.5 | 7.8 | 0.04 | 0.41 | 0.26 | 96 | 1013.1 |
| 20260505184703 | 35 | 44 | 3.5 | 7.8 | 0.04 | 0.41 | 0.26 | 96 | 1013.2 |
| 20260505184613 | 35 | 50 | 3.5 | 7.8 | 0.04 | 0.41 | 0.26 | 96 | 1013.2 |
| 20260505184412 | 35 | 42 | 3.5 | 7.8 | 0.04 | 0.41 | 0.26 | 96 | 1013.2 |
| 20260505184213 | 35 | 40 | 3.5 | 7.8 | 0.04 | 0.41 | 0.26 | 96 | 1013.2 |
| 20260505184205 | 35 | 36 | 3.5 | 7.8 | 0.04 | 0.41 | 0.26 | 96 | 1013.2 |
| 20260505184012 | 35 | 79 | 3.5 | 7.8 | 0.04 | 0.41 | 0.26 | 96 | 1013.2 |
| 20260505183813 | 35 | 45 | 3.5 | 7.8 | 0.04 | 0.41 | 0.26 | 96 | 1013.2 |
| 20260505183704 | 35 | 45 | 3.5 | 7.8 | 0.04 | 0.41 | 0.26 | 96 | 1013.2 |
| 20260505183613 | 35 | 55 | 4.3 | 7.8 | 0.04 | 0.41 | 0.26 | 96 | 1013.2 |
| 20260505183412 | 35 | 52 | 4.3 | 7.8 | 0.04 | 0.41 | 0.26 | 96 | 1013.2 |
| 20260505183214 | 35 | 51 | 4.3 | 8.7 | 0.04 | 0.41 | 0.26 | 96 | 1013.2 |
| 20260505183205 | 35 | 44 | 4.3 | 8.7 | 0.04 | 0.41 | 0.26 | 96 | 1013.2 |
| 20260505183013 | 35 | 50 | 4.3 | 8.7 | 0.04 | 0.41 | 0.26 | 96 | 1013.2 |
| 20260505182704 | 35 | 34 | 4.3 | 8.7 | 0.04 | 0.41 | 0.26 | 96 | 1013.4 |
| 20260505182614 | 35 | 49 | 4.3 | 8.7 | 0.03 | 0.40 | 0.26 | 96 | 1013.2 |
| 20260505182411 | 35 | 39 | 3.5 | 8.7 | 0.03 | 0.40 | 0.25 | 96 | 1013.2 |
| 20260505182213 | 35 | 62 | 3.5 | 7.0 | 0.03 | 0.40 | 0.25 | 96 | 1013.2 |
| 20260505182203 | 35 | 30 | 3.5 | 7.0 | 0.03 | 0.40 | 0.25 | 96 | 1013.2 |
| 20260505182009 | 35 | 37 | 3.5 | 7.0 | 0.03 | 0.40 | 0.25 | 96 | 1013.2 |
| 20260505181810 | 35 | 22 | 2.6 | 7.0 | 0.03 | 0.40 | 0.25 | 96 | 1013.4 |
| 20260505181702 | 35 | 46 | 2.6 | 7.0 | 0.03 | 0.40 | 0.25 | 96 | 1013.4 |
| 20260505181610 | 35 | 52 | 3.5 | 7.0 | 0.03 | 0.40 | 0.25 | 96 | 1013.4 |
| 20260505181410 | 35 | 58 | 3.5 | 7.0 | 0.02 | 0.39 | 0.24 | 96 | 1013.5 |
| 20260505181210 | 35 | 34 | 3.5 | 7.0 | 0.02 | 0.39 | 0.24 | 96 | 1013.4 |
| 20260505181203 | 35 | 26 | 3.5 | 7.0 | 0.02 | 0.39 | 0.24 | 96 | 1013.4 |
| 20260505181011 | 35 | 47 | 3.5 | 7.0 | 0.02 | 0.39 | 0.24 | 96 | 1013.5 |
| 20260505180809 | 35 | 49 | 3.5 | 7.0 | 0.02 | 0.39 | 0.24 | 96 | 1013.5 |
| 20260505180702 | 35 | 53 | 3.5 | 7.0 | 0.02 | 0.39 | 0.24 | 96 | 1013.6 |
| 20260505180608 | 35 | 64 | 3.5 | 7.0 | 0.02 | 0.39 | 0.24 | 96 | 1013.6 |
| 20260505180408 | 35 | 55 | 3.5 | 7.8 | 0.02 | 0.39 | 0.24 | 96 | 1013.6 |
| 20260505180212 | 34 | 49 | 3.5 | 7.8 | 0.02 | 0.39 | 0.24 | 96 | 1013.6 |
| 20260505180207 | 34 | 62 | 4.3 | 7.8 | 0.01 | 0.38 | 0.23 | 96 | 1013.7 |
| 20260505180202 | 34 | 51 | 3.5 | 7.8 | 0.02 | 0.39 | 0.24 | 96 | 1013.6 |
| 20260505180008 | 34 | 49 | 3.5 | 7.8 | 0.01 | 0.38 | 0.24 | 96 | 1013.6 |
| 20260505175820 | 34 | 54 | 4.3 | 7.8 | 0.01 | 0.38 | 0.23 | 96 | 1013.7 |
| 20260505175607 | 35 | 72 | 3.5 | 7.8 | 0.01 | 0.38 | 0.23 | 96 | 1013.7 |
| 20260505175408 | 35 | 71 | 3.5 | 7.8 | 0.02 | 0.38 | 0.23 | 96 | 1013.7 |
| 20260505175208 | 35 | 49 | 3.5 | 7.8 | 0.02 | 0.38 | 0.23 | 96 | 1013.7 |
| 20260505175201 | 35 | 28 | 4.3 | 7.8 | 0.02 | 0.38 | 0.23 | 96 | 1013.7 |
| 20260505175007 | 35 | 75 | 4.3 | 7.8 | 0.01 | 0.37 | 0.22 | 96 | 1013.7 |
| 20260505174807 | 35 | 53 | 3.5 | 5.2 | 0.01 | 0.37 | 0.22 | 96 | 1013.7 |
| 20260505174701 | 35 | 43 | 3.5 | 5.2 | 0.01 | 0.37 | 0.22 | 96 | 1013.7 |
| 20260505174607 | 35 | 59 | 3.5 | 5.2 | 0.01 | 0.37 | 0.22 | 96 | 1013.7 |
| 20260505174405 | 35 | 38 | 3.5 | 5.2 | 0.01 | 0.37 | 0.22 | 96 | 1013.7 |
| 20260505174206 | 35 | 40 | 3.5 | 5.2 | 0.01 | 0.37 | 0.22 | 96 | 1013.7 |
| 20260505174201 | 35 | 24 | 3.5 | 5.2 | 0.01 | 0.37 | 0.22 | 96 | 1013.7 |
| 20260505174005 | 35 | 42 | 3.5 | 5.2 | 0.01 | 0.37 | 0.22 | 96 | 1013.7 |
| 20260505173801 | 35 | 49 | 3.5 | 5.2 | 0.01 | 0.37 | 0.22 | 96 | 1013.7 |
| 20260505173701 | 35 | 56 | 3.5 | 5.2 | 0.01 | 0.37 | 0.22 | 96 | 1013.7 |
| 20260505173602 | 35 | 44 | 2.6 | 5.2 | 0.01 | 0.37 | 0.22 | 96 | 1013.7 |
| 20260505173402 | 35 | 70 | 3.5 | 6.1 | 0.01 | 0.37 | 0.22 | 96 | 1013.7 |
| 20260505173201 | 35 | 57 | 2.6 | 6.1 | 0.01 | 0.37 | 0.22 | 96 | 1013.7 |
| 20260505173002 | 35 | 33 | 2.6 | 6.1 | 0.02 | 0.37 | 0.22 | 96 | 1013.7 |
| 20260505172801 | 35 | 48 | 3.5 | 7.0 | 0.02 | 0.37 | 0.22 | 96 | 1013.8 |
| 20260505172701 | 35 | 42 | 3.5 | 7.0 | 0.02 | 0.37 | 0.22 | 96 | 1013.8 |
| 20260505172601 | 35 | 47 | 3.5 | 7.0 | 0.02 | 0.37 | 0.22 | 96 | 1013.8 |
| 20260505172402 | 35 | 59 | 3.5 | 7.0 | 0.02 | 0.37 | 0.22 | 96 | 1013.8 |
| 20260505172211 | 35 | 75 | 4.3 | 8.7 | 0.03 | 0.37 | 0.22 | 96 | 1013.8 |
| 20260505172201 | 35 | 68 | 3.5 | 7.0 | 0.02 | 0.37 | 0.22 | 96 | 1013.8 |
| 20260505172002 | 35 | 86 | 4.3 | 7.0 | 0.03 | 0.37 | 0.22 | 96 | 1013.8 |
| 20260505171817 | 35 | 63 | 4.3 | 7.8 | 0.03 | 0.37 | 0.22 | 96 | 1013.8 |
| 20260505171602 | 35 | 62 | 4.3 | 8.7 | 0.03 | 0.37 | 0.22 | 96 | 1013.8 |
| 20260505171402 | 35 | 41 | 4.3 | 8.7 | 0.03 | 0.37 | 0.22 | 96 | 1013.8 |
| 20260505171212 | 35 | 61 | 3.5 | 7.8 | 0.03 | 0.37 | 0.22 | 96 | 1013.7 |
| 20260505171201 | 35 | 69 | 4.3 | 8.7 | 0.03 | 0.37 | 0.22 | 96 | 1013.8 |
| 20260505171000 | 35 | 63 | 4.3 | 8.7 | 0.03 | 0.37 | 0.22 | 96 | 1013.7 |
| 20260505170818 | 35 | 63 | 4.3 | 8.7 | 0.03 | 0.37 | 0.22 | 96 | 1013.7 |
| 20260505170600 | 35 | 77 | 3.5 | 7.0 | 0.03 | 0.37 | 0.22 | 96 | 1013.8 |
| 20260505170359 | 35 | 33 | 3.5 | 7.0 | 0.03 | 0.37 | 0.22 | 96 | 1013.7 |
| 20260505170205 | 35 | 39 | 3.5 | 7.0 | 0.03 | 0.37 | 0.22 | 96 | 1013.8 |
| 20260505170201 | 35 | 74 | 3.5 | 7.0 | 0.03 | 0.37 | 0.22 | 96 | 1013.8 |
| 20260505170001 | 35 | 55 | 2.6 | 7.0 | 0.03 | 0.37 | 0.22 | 96 | 1014.0 |
| 20260505165801 | 35 | 47 | 2.6 | 7.0 | 0.03 | 0.37 | 0.22 | 96 | 1014.0 |
| 20260505165703 | 35 | 47 | 2.6 | 7.0 | 0.03 | 0.37 | 0.22 | 96 | 1014.0 |
| 20260505165558 | 35 | 52 | 2.6 | 7.0 | 0.03 | 0.37 | 0.22 | 96 | 1014.0 |
| 20260505165359 | 35 | 23 | 2.6 | 5.2 | 0.02 | 0.36 | 0.22 | 96 | 1014.1 |
| 20260505165203 | 34 | 41 | 2.6 | 4.3 | 0.02 | 0.36 | 0.21 | 96 | 1014.1 |
| 20260505165159 | 34 | 41 | 2.6 | 4.3 | 0.02 | 0.36 | 0.21 | 96 | 1014.1 |
| 20260505164957 | 35 | 53 | 2.6 | 4.3 | 0.02 | 0.36 | 0.21 | 96 | 1014.1 |
| 20260505164758 | 35 | 42 | 2.6 | 4.3 | 0.02 | 0.36 | 0.21 | 96 | 1014.2 |
| 20260505164659 | 34 | 5 | 2.6 | 5.2 | 0.02 | 0.36 | 0.21 | 96 | 1014.1 |
| 20260505164559 | 34 | 0 | 2.6 | 5.2 | 0.02 | 0.36 | 0.21 | 96 | 1014.1 |
| 20260505164356 | 35 | 43 | 1.7 | 5.2 | 0.02 | 0.36 | 0.21 | 96 | 1014.2 |
| 20260505164206 | 34 | 40 | 2.6 | 7.0 | 0.03 | 0.36 | 0.21 | 96 | 1014.2 |
| 20260505164155 | 34 | 28 | 1.7 | 5.2 | 0.02 | 0.36 | 0.21 | 96 | 1014.2 |
| 20260505163955 | 34 | 31 | 2.6 | 5.2 | 0.03 | 0.36 | 0.21 | 96 | 1014.2 |
| 20260505163815 | 34 | 61 | 2.6 | 7.0 | 0.03 | 0.36 | 0.21 | 96 | 1014.3 |
| 20260505163557 | 34 | 34 | 2.6 | 7.0 | 0.03 | 0.36 | 0.21 | 96 | 1014.3 |
| 20260505163356 | 34 | 323 | 3.5 | 7.0 | 0.03 | 0.36 | 0.21 | 96 | 1014.3 |
| 20260505163200 | 34 | 344 | 3.5 | 7.8 | 0.03 | 0.36 | 0.21 | 96 | 1014.3 |
| 20260505163155 | 34 | 341 | 3.5 | 7.8 | 0.03 | 0.36 | 0.21 | 96 | 1014.3 |
| 20260505162956 | 34 | 346 | 3.5 | 7.8 | 0.02 | 0.35 | 0.20 | 96 | 1014.3 |
| 20260505162755 | 34 | 332 | 4.3 | 7.8 | 0.02 | 0.35 | 0.20 | 96 | 1014.3 |
| 20260505162658 | 34 | 337 | 4.3 | 7.8 | 0.02 | 0.35 | 0.20 | 96 | 1014.3 |
| 20260505162556 | 34 | 331 | 4.3 | 7.8 | 0.02 | 0.35 | 0.20 | 96 | 1014.3 |
| 20260505162357 | 34 | 309 | 4.3 | 7.8 | 0.02 | 0.35 | 0.20 | 96 | 1014.3 |
| 20260505162159 | 34 | 303 | 4.3 | 7.0 | 0.02 | 0.35 | 0.20 | 96 | 1014.3 |
| 20260505162155 | 34 | 283 | 4.3 | 7.0 | 0.02 | 0.35 | 0.20 | 96 | 1014.3 |
| 20260505161955 | 34 | 311 | 4.3 | 7.8 | 0.01 | 0.34 | 0.19 | 96 | 1014.3 |
| 20260505161755 | 34 | 292 | 4.3 | 7.8 | 0.01 | 0.34 | 0.19 | 96 | 1014.2 |
| 20260505161657 | 34 | 304 | 4.3 | 7.8 | 0.01 | 0.34 | 0.19 | 96 | 1014.3 |
| 20260505161557 | 34 | 288 | 4.3 | 7.8 | 0.01 | 0.34 | 0.19 | 96 | 1014.3 |
| 20260505161356 | 34 | 311 | 5.2 | 7.8 | 0.01 | 0.34 | 0.19 | 96 | 1014.3 |
| 20260505161155 | 34 | 310 | 4.3 | 7.8 | 0.02 | 0.34 | 0.19 | 96 | 1014.3 |
| 20260505160956 | 34 | 287 | 4.3 | 7.8 | 0.02 | 0.34 | 0.19 | 96 | 1014.3 |
| 20260505160755 | 34 | 311 | 5.2 | 7.8 | 0.02 | 0.34 | 0.19 | 96 | 1014.4 |
| 20260505160657 | 34 | 312 | 5.2 | 8.7 | 0.02 | 0.34 | 0.19 | 96 | 1014.4 |
| 20260505160555 | 34 | 277 | 5.2 | 8.7 | 0.02 | 0.34 | 0.19 | 96 | 1014.4 |
| 20260505160355 | 34 | 291 | 5.2 | 8.7 | 0.02 | 0.34 | 0.19 | 96 | 1014.4 |
| 20260505160207 | 34 | 314 | 4.3 | 7.8 | 0.02 | 0.34 | 0.19 | 96 | 1014.3 |
| 20260505160156 | 34 | 313 | 4.3 | 8.7 | 0.02 | 0.34 | 0.19 | 96 | 1014.3 |
| 20260505153352 | 33 | 330 | 5.2 | 9.6 | 0.02 | 0.33 | 0.18 | 96 | 1014.4 |
| 20260505153156 | 33 | 322 | 6.1 | 9.6 | 0.02 | 0.33 | 0.18 | 96 | 1014.4 |
| 20260505153152 | 33 | 333 | 6.1 | 9.6 | 0.02 | 0.33 | 0.18 | 96 | 1014.4 |
| 20260505152952 | 34 | 316 | 6.1 | 9.6 | 0.02 | 0.33 | 0.18 | 96 | 1014.4 |
| 20260505152752 | 33 | 351 | 6.1 | 9.6 | 0.02 | 0.33 | 0.18 | 96 | 1014.4 |
| 20260505152654 | 33 | 339 | 6.1 | 9.6 | 0.02 | 0.33 | 0.18 | 96 | 1014.4 |
| 20260505152551 | 33 | 333 | 7.0 | 9.6 | 0.02 | 0.33 | 0.18 | 96 | 1014.4 |
| 20260505152351 | 33 | 339 | 7.0 | 9.6 | 0.02 | 0.33 | 0.18 | 96 | 1014.4 |
| 20260505152200 | 33 | 325 | 7.0 | 9.6 | 0.02 | 0.33 | 0.18 | 96 | 1014.6 |
| 20260505152154 | 33 | 321 | 7.0 | 9.6 | 0.02 | 0.33 | 0.18 | 96 | 1014.6 |
| 20260505152150 | 33 | 309 | 7.0 | 9.6 | 0.02 | 0.33 | 0.18 | 96 | 1014.6 |
| 20260505151951 | 33 | 286 | 7.0 | 9.6 | 0.02 | 0.33 | 0.18 | 96 | 1014.6 |
| 20260505151810 | 33 | 311 | 6.1 | 9.6 | 0.02 | 0.33 | 0.18 | 96 | 1014.6 |
| 20260505151550 | 33 | 329 | 6.1 | 9.6 | 0.02 | 0.33 | 0.18 | 96 | 1014.6 |
| 20260505151348 | 33 | 312 | 6.1 | 9.6 | 0.02 | 0.33 | 0.18 | 96 | 1014.6 |
| 20260505151155 | 33 | 328 | 6.1 | 8.7 | 0.01 | 0.32 | 0.18 | 96 | 1014.4 |
| 20260505151149 | 33 | 331 | 6.1 | 8.7 | 0.01 | 0.32 | 0.18 | 96 | 1014.4 |
| 20260505150949 | 33 | 332 | 6.1 | 8.7 | 0.01 | 0.32 | 0.17 | 96 | 1014.4 |
| 20260505150748 | 33 | 339 | 6.1 | 8.7 | 0.01 | 0.32 | 0.17 | 96 | 1014.4 |
| 20260505150653 | 33 | 337 | 6.1 | 8.7 | 0.01 | 0.32 | 0.17 | 96 | 1014.4 |
| 20260505150549 | 33 | 331 | 6.1 | 8.7 | 0.01 | 0.32 | 0.17 | 96 | 1014.4 |
| 20260505150348 | 33 | 336 | 6.1 | 10.4 | 0.01 | 0.32 | 0.17 | 96 | 1014.4 |
| 20260505150154 | 33 | 331 | 7.0 | 10.4 | 0.02 | 0.32 | 0.17 | 96 | 1014.4 |
| 20260505150146 | 33 | 321 | 7.0 | 10.4 | 0.02 | 0.32 | 0.17 | 96 | 1014.4 |
| 20260505140649 | 33 | 338 | 7.8 | 11.3 | 0.01 | 0.31 | 0.16 | 96 | 1014.8 |
| 20260505140531 | 33 | 340 | 7.0 | 12.2 | 0.01 | 0.31 | 0.16 | 96 | 1014.7 |
| 20260505140331 | 33 | 331 | 7.0 | 12.2 | 0.01 | 0.31 | 0.16 | 96 | 1014.8 |
| 20260505140148 | 33 | 324 | 7.0 | 12.2 | 0.00 | 0.30 | 0.15 | 96 | 1014.8 |
| 20260505140131 | 33 | 326 | 7.0 | 12.2 | 0.00 | 0.30 | 0.15 | 96 | 1014.8 |
| 20260505130145 | 34 | 311 | 10.4 | 16.5 | 0.02 | 0.30 | 0.15 | 96 | 1013.6 |
| 20260505130124 | 34 | 334 | 10.4 | 16.5 | 0.02 | 0.30 | 0.15 | 96 | 1013.6 |
| 20260505124925 | 34 | 320 | 11.3 | 19.1 | 0.03 | 0.30 | 0.15 | 96 | 1013.5 |
| 20260505124810 | 34 | 346 | 10.4 | 16.5 | 0.03 | 0.29 | 0.14 | 96 | 1013.1 |
| 20260505124757 | 34 | 303 | 11.3 | 19.1 | 0.03 | 0.30 | 0.15 | 96 | 1013.2 |
| 20260505124524 | 34 | 301 | 11.3 | 15.6 | 0.03 | 0.30 | 0.15 | 96 | 1013.1 |
| 20260505124322 | 34 | 321 | 11.3 | 16.5 | 0.04 | 0.30 | 0.15 | 96 | 1013.1 |
| 20260505124123 | 34 | 308 | 10.4 | 16.5 | 0.03 | 0.29 | 0.14 | 96 | 1013.1 |
| 20260505123923 | 34 | 307 | 11.3 | 16.5 | 0.03 | 0.29 | 0.14 | 95 | 1013.1 |
| 20260505123723 | 34 | 342 | 11.3 | 17.4 | 0.04 | 0.29 | 0.14 | 95 | 1013.0 |
| 20260505123645 | 34 | 333 | 11.3 | 17.4 | 0.04 | 0.29 | 0.14 | 95 | 1013.1 |
| 20260505123524 | 34 | 327 | 11.3 | 17.4 | 0.04 | 0.29 | 0.14 | 95 | 1013.1 |
| 20260505123324 | 34 | 312 | 11.3 | 17.4 | 0.04 | 0.29 | 0.14 | 95 | 1013.1 |
| 20260505123144 | 34 | 318 | 11.3 | 17.4 | 0.04 | 0.29 | 0.14 | 95 | 1013.0 |
| 20260505123124 | 34 | 338 | 11.3 | 17.4 | 0.04 | 0.29 | 0.14 | 95 | 1013.0 |
| 20260505122923 | 34 | 325 | 10.4 | 17.4 | 0.05 | 0.29 | 0.14 | 95 | 1012.9 |
| 20260505122723 | 34 | 344 | 10.4 | 15.6 | 0.06 | 0.29 | 0.14 | 95 | 1012.9 |
| 20260505122644 | 35 | 320 | 10.4 | 15.6 | 0.07 | 0.29 | 0.14 | 95 | 1013.0 |
| 20260505122523 | 35 | 344 | 10.4 | 15.6 | 0.07 | 0.29 | 0.14 | 95 | 1012.9 |
| 20260505122322 | 35 | 342 | 11.3 | 16.5 | 0.08 | 0.29 | 0.14 | 95 | 1013.0 |
| 20260505122145 | 35 | 5 | 11.3 | 16.5 | 0.08 | 0.29 | 0.14 | 95 | 1012.9 |
| 20260505122124 | 35 | 342 | 11.3 | 16.5 | 0.08 | 0.29 | 0.14 | 95 | 1012.9 |
| 20260505121923 | 35 | 319 | 11.3 | 17.4 | 0.08 | 0.28 | 0.13 | 95 | 1012.9 |
| 20260505121723 | 35 | 336 | 11.3 | 17.4 | 0.09 | 0.28 | 0.13 | 95 | 1012.9 |
| 20260505121644 | 35 | 331 | 11.3 | 17.4 | 0.09 | 0.28 | 0.13 | 95 | 1013.0 |
| 20260505121524 | 35 | 321 | 11.3 | 17.4 | 0.09 | 0.28 | 0.13 | 95 | 1013.0 |
| 20260505121323 | 35 | 342 | 10.4 | 17.4 | 0.09 | 0.28 | 0.13 | 95 | 1013.0 |
| 20260505121145 | 35 | 322 | 10.4 | 17.4 | 0.09 | 0.28 | 0.13 | 95 | 1013.0 |
| 20260505121124 | 35 | 346 | 10.4 | 17.4 | 0.10 | 0.28 | 0.13 | 95 | 1013.0 |
| 20260505120924 | 35 | 320 | 10.4 | 16.5 | 0.10 | 0.28 | 0.13 | 95 | 1013.0 |
| 20260505120724 | 35 | 300 | 11.3 | 16.5 | 0.10 | 0.28 | 0.13 | 95 | 1013.1 |
| 20260505120646 | 35 | 315 | 11.3 | 16.5 | 0.10 | 0.28 | 0.13 | 95 | 1013.0 |
| 20260505120524 | 35 | 339 | 11.3 | 16.5 | 0.10 | 0.28 | 0.13 | 95 | 1013.0 |
| 20260505120323 | 36 | 335 | 11.3 | 16.5 | 0.10 | 0.28 | 0.13 | 95 | 1013.0 |
| 20260505120146 | 36 | 346 | 11.3 | 16.5 | 0.10 | 0.28 | 0.13 | 95 | 1013.0 |
| 20260505120123 | 36 | 34 | 11.3 | 16.5 | 0.10 | 0.28 | 0.13 | 95 | 1013.0 |
| 20260505115926 | 36 | 329 | 11.3 | 16.5 | 0.09 | 0.27 | 0.13 | 95 | 1013.0 |
| 20260505115725 | 36 | 332 | 11.3 | 16.5 | 0.09 | 0.27 | 0.12 | 95 | 1013.0 |
| 20260505115646 | 36 | 319 | 11.3 | 16.5 | 0.09 | 0.27 | 0.12 | 95 | 1013.0 |
| 20260505115524 | 36 | 314 | 11.3 | 16.5 | 0.09 | 0.27 | 0.12 | 95 | 1013.0 |
| 20260505115322 | 36 | 337 | 11.3 | 16.5 | 0.09 | 0.27 | 0.12 | 95 | 1013.0 |
| 20260505115146 | 36 | 323 | 11.3 | 16.5 | 0.09 | 0.27 | 0.12 | 95 | 1012.9 |
| 20260505115122 | 36 | 312 | 11.3 | 16.5 | 0.09 | 0.27 | 0.12 | 95 | 1012.9 |
| 20260505114923 | 37 | 318 | 11.3 | 15.6 | 0.09 | 0.27 | 0.12 | 95 | 1012.9 |
| 20260505114724 | 37 | 338 | 11.3 | 15.6 | 0.09 | 0.27 | 0.12 | 95 | 1012.9 |
| 20260505114645 | 37 | 327 | 10.4 | 15.6 | 0.09 | 0.27 | 0.12 | 95 | 1012.9 |
| 20260505114522 | 37 | 315 | 11.3 | 15.6 | 0.09 | 0.27 | 0.12 | 95 | 1012.9 |
| 20260505114324 | 37 | 313 | 10.4 | 15.6 | 0.08 | 0.26 | 0.11 | 95 | 1012.9 |
| 20260505114146 | 37 | 314 | 11.3 | 16.5 | 0.08 | 0.26 | 0.11 | 95 | 1012.9 |
| 20260505114122 | 37 | 332 | 11.3 | 17.4 | 0.08 | 0.26 | 0.11 | 95 | 1012.9 |
| 20260505113923 | 37 | 311 | 11.3 | 17.4 | 0.08 | 0.26 | 0.11 | 95 | 1012.8 |
| 20260505113724 | 37 | 313 | 11.3 | 17.4 | 0.07 | 0.25 | 0.11 | 95 | 1012.9 |
| 20260505113646 | 37 | 325 | 11.3 | 17.4 | 0.07 | 0.25 | 0.10 | 95 | 1012.8 |
| 20260505113523 | 37 | 295 | 11.3 | 17.4 | 0.07 | 0.25 | 0.10 | 95 | 1012.8 |
| 20260505113324 | 37 | 273 | 11.3 | 17.4 | 0.07 | 0.25 | 0.10 | 95 | 1012.9 |
| 20260505113147 | 37 | 292 | 11.3 | 17.4 | 0.07 | 0.25 | 0.10 | 95 | 1012.6 |
| 20260505113123 | 38 | 313 | 11.3 | 17.4 | 0.07 | 0.25 | 0.10 | 95 | 1012.6 |
| 20260505112924 | 38 | 333 | 11.3 | 17.4 | 0.06 | 0.24 | 0.09 | 95 | 1012.6 |
| 20260505112723 | 38 | 322 | 11.3 | 17.4 | 0.05 | 0.23 | 0.08 | 95 | 1012.6 |
| 20260505112644 | 38 | 300 | 11.3 | 17.4 | 0.04 | 0.22 | 0.08 | 95 | 1012.6 |
| 20260505112524 | 38 | 338 | 11.3 | 17.4 | 0.04 | 0.22 | 0.07 | 95 | 1012.6 |
| 20260505112324 | 38 | 314 | 11.3 | 17.4 | 0.03 | 0.21 | 0.06 | 95 | 1012.6 |
| 20260505112146 | 38 | 311 | 10.4 | 17.4 | 0.03 | 0.21 | 0.06 | 95 | 1012.5 |
| 20260505112122 | 38 | 324 | 10.4 | 17.4 | 0.03 | 0.21 | 0.06 | 95 | 1012.5 |
| 20260505111924 | 38 | 322 | 9.6 | 17.4 | 0.02 | 0.20 | 0.05 | 95 | 1012.5 |
| 20260505111722 | 38 | 323 | 9.6 | 17.4 | 0.01 | 0.19 | 0.05 | 95 | 1012.5 |
| 20260505111644 | 38 | 322 | 8.7 | 17.4 | 0.01 | 0.19 | 0.04 | 95 | 1012.5 |
| 20260505111525 | 38 | 327 | 8.7 | 15.6 | 0.01 | 0.19 | 0.04 | 95 | 1012.5 |
| 20260505111323 | 39 | 343 | 8.7 | 14.8 | 0.01 | 0.19 | 0.04 | 95 | 1012.5 |
| 20260505111145 | 39 | 323 | 8.7 | 14.8 | 0.01 | 0.19 | 0.04 | 95 | 1012.5 |
| 20260505111124 | 39 | 313 | 8.7 | 14.8 | 0.00 | 0.18 | 0.03 | 95 | 1012.5 |
| 20260505110924 | 39 | 328 | 8.7 | 14.8 | 0.00 | 0.18 | 0.03 | 95 | 1012.6 |
| 20260505110723 | 39 | 321 | 8.7 | 14.8 | 0.00 | 0.18 | 0.03 | 95 | 1012.5 |
| 20260505110644 | 39 | 334 | 9.6 | 14.8 | 0.00 | 0.18 | 0.03 | 95 | 1012.4 |
| 20260505110524 | 39 | 325 | 9.6 | 14.8 | 0.00 | 0.18 | 0.03 | 95 | 1012.4 |
| 20260505110323 | 39 | 300 | 9.6 | 14.8 | 0.00 | 0.18 | 0.03 | 95 | 1012.4 |
| 20260505110145 | 39 | 317 | 9.6 | 15.6 | 0.00 | 0.18 | 0.03 | 95 | 1012.4 |
| 20260505110125 | 39 | 332 | 9.6 | 15.6 | 0.00 | 0.18 | 0.03 | 95 | 1012.4 |
| 20260505102144 | 43 | 302 | 6.1 | 14.8 | 0.00 | 0.18 | 0.03 | 94 | 1011.7 |
| 20260505102121 | 43 | 311 | 6.1 | 14.8 | 0.00 | 0.18 | 0.03 | 94 | 1011.7 |
| 20260505101922 | 43 | 336 | 4.3 | 14.8 | 0.00 | 0.18 | 0.03 | 94 | 1011.5 |
| 20260505101722 | 43 | 306 | 3.5 | 8.7 | 0.00 | 0.18 | 0.03 | 94 | 1011.4 |
| 20260505101645 | 43 | 306 | 2.6 | 7.0 | 0.00 | 0.18 | 0.03 | 94 | 1011.3 |
| 20260505101522 | 43 | 321 | 2.6 | 4.3 | 0.00 | 0.18 | 0.03 | 94 | 1011.2 |
| 20260505101321 | 43 | 320 | 2.6 | 4.3 | 0.00 | 0.18 | 0.03 | 94 | 1011.3 |
| 20260505101121 | 43 | 327 | 2.6 | 4.3 | 0.00 | 0.18 | 0.03 | 94 | 1011.3 |
| 20260505100922 | 43 | 319 | 2.6 | 4.3 | 0.00 | 0.18 | 0.03 | 94 | 1011.4 |
| 20260505100722 | 43 | 344 | 2.6 | 4.3 | 0.00 | 0.18 | 0.03 | 94 | 1011.3 |
| 20260505100642 | 43 | 335 | 2.6 | 4.3 | 0.00 | 0.18 | 0.03 | 94 | 1011.3 |
| 20260505100522 | 43 | 348 | 2.6 | 5.2 | 0.00 | 0.18 | 0.03 | 94 | 1011.2 |
| 20260505100321 | 43 | 322 | 3.5 | 7.0 | 0.00 | 0.18 | 0.03 | 94 | 1011.3 |
| 20260505100142 | 43 | 339 | 3.5 | 7.0 | 0.00 | 0.18 | 0.03 | 93 | 1011.3 |
| 20260505100122 | 43 | 333 | 3.5 | 7.0 | 0.00 | 0.18 | 0.03 | 93 | 1011.3 |
| 20260505095921 | 44 | 341 | 3.5 | 7.0 | 0.00 | 0.18 | 0.03 | 93 | 1011.3 |
| 20260505095728 | 44 | 296 | 4.3 | 7.0 | 0.00 | 0.18 | 0.03 | 93 | 1011.4 |
| 20260505095720 | 43 | 278 | 3.5 | 7.0 | 0.00 | 0.18 | 0.03 | 93 | 1011.4 |
| 20260505095642 | 43 | 296 | 4.3 | 7.0 | 0.00 | 0.18 | 0.03 | 93 | 1011.4 |
| 20260505095321 | 43 | 323 | 4.3 | 8.7 | 0.00 | 0.18 | 0.03 | 93 | 1011.3 |
| 20260505095144 | 43 | 313 | 4.3 | 8.7 | 0.00 | 0.18 | 0.03 | 93 | 1011.4 |
| 20260505095121 | 44 | 331 | 4.3 | 8.7 | 0.00 | 0.18 | 0.03 | 93 | 1011.4 |
| 20260505094922 | 43 | 313 | 5.2 | 10.4 | 0.00 | 0.18 | 0.03 | 92 | 1011.4 |
| 20260505094722 | 43 | 324 | 6.1 | 10.4 | 0.00 | 0.18 | 0.03 | 92 | 1011.4 |
| 20260505094643 | 43 | 321 | 6.1 | 10.4 | 0.00 | 0.18 | 0.03 | 92 | 1011.4 |
| 20260505094522 | 43 | 302 | 6.1 | 10.4 | 0.00 | 0.18 | 0.03 | 92 | 1011.4 |
| 20260505094322 | 43 | 279 | 6.1 | 10.4 | 0.00 | 0.18 | 0.03 | 91 | 1011.4 |
| 20260505094148 | 43 | 0 | 5.2 | 8.7 | 0.00 | 0.18 | 0.03 | 90 | 1011.1 |
| 20260505094143 | 43 | 284 | 6.1 | 10.4 | 0.00 | 0.18 | 0.03 | 91 | 1011.3 |
| 20260505094120 | 43 | 288 | 6.1 | 10.4 | 0.00 | 0.18 | 0.03 | 91 | 1011.3 |
| 20260505093921 | 43 | 305 | 5.2 | 9.6 | 0.00 | 0.18 | 0.03 | 90 | 1011.3 |
| 20260505093755 | 43 | 306 | 5.2 | 8.7 | 0.00 | 0.18 | 0.03 | 90 | 1011.2 |
| 20260505093521 | 44 | 10 | 4.3 | 8.7 | 0.00 | 0.18 | 0.03 | 90 | 1010.9 |
| 20260505093318 | 44 | 38 | 4.3 | 8.7 | 0.00 | 0.18 | 0.03 | 90 | 1010.9 |
| 20260505093143 | 44 | 51 | 4.3 | 8.7 | 0.00 | 0.18 | 0.03 | 90 | 1010.9 |
| 20260505093118 | 44 | 59 | 4.3 | 8.7 | 0.00 | 0.18 | 0.03 | 90 | 1010.9 |
| 20260505092918 | 44 | 63 | 5.2 | 8.7 | 0.00 | 0.18 | 0.03 | 90 | 1010.9 |
| 20260505092718 | 44 | 43 | 4.3 | 8.7 | 0.00 | 0.18 | 0.03 | 90 | 1010.9 |
| 20260505092648 | 44 | 59 | 3.5 | 7.0 | 0.00 | 0.18 | 0.03 | 89 | 1011.1 |
| 20260505092644 | 44 | 26 | 4.3 | 8.7 | 0.00 | 0.18 | 0.03 | 90 | 1010.9 |
| 20260505092516 | 44 | 65 | 4.3 | 8.7 | 0.00 | 0.18 | 0.03 | 90 | 1010.8 |
| 20260505092313 | 44 | 55 | 4.3 | 7.0 | 0.00 | 0.18 | 0.03 | 89 | 1010.9 |
| 20260505092112 | 44 | 76 | 3.5 | 7.0 | 0.00 | 0.18 | 0.03 | 89 | 1011.1 |
| 20260505091912 | 44 | 74 | 2.6 | 7.0 | 0.00 | 0.18 | 0.03 | 89 | 1011.2 |
| 20260505091710 | 44 | 74 | 1.7 | 6.1 | 0.00 | 0.18 | 0.03 | 89 | 1011.2 |
| 20260505091643 | 44 | 84 | 1.7 | 6.1 | 0.00 | 0.18 | 0.03 | 89 | 1011.3 |
| 20260505091510 | 44 | 59 | 1.7 | 4.3 | 0.00 | 0.18 | 0.03 | 89 | 1011.2 |
| 20260505091312 | 44 | 29 | 1.7 | 4.3 | 0.00 | 0.18 | 0.03 | 89 | 1011.3 |
| 20260505091142 | 44 | 32 | 2.6 | 4.3 | 0.00 | 0.18 | 0.03 | 89 | 1011.3 |
| 20260505091111 | 44 | 39 | 2.6 | 4.3 | 0.00 | 0.18 | 0.03 | 88 | 1011.3 |
| 20260505090911 | 44 | 5 | 3.5 | 6.1 | 0.00 | 0.18 | 0.03 | 88 | 1011.2 |
| 20260505090711 | 44 | 11 | 2.6 | 6.1 | 0.00 | 0.18 | 0.03 | 87 | 1011.3 |
| 20260505090642 | 44 | 38 | 2.6 | 6.1 | 0.00 | 0.18 | 0.03 | 87 | 1011.3 |
| 20260505090511 | 44 | 69 | 2.6 | 6.1 | 0.00 | 0.18 | 0.03 | 87 | 1011.3 |
| 20260505090310 | 44 | 74 | 2.6 | 6.1 | 0.00 | 0.18 | 0.03 | 86 | 1011.3 |
| 20260505090148 | 44 | 65 | 0.9 | 4.3 | 0.00 | 0.18 | 0.03 | 85 | 1011.2 |
| 20260505090143 | 44 | 78 | 1.7 | 6.1 | 0.00 | 0.18 | 0.03 | 86 | 1011.2 |
| 20260505090110 | 44 | 75 | 1.7 | 6.1 | 0.00 | 0.18 | 0.03 | 86 | 1011.2 |
| 20260505085910 | 44 | 80 | 1.7 | 4.3 | 0.00 | 0.18 | 0.03 | 86 | 1011.2 |
| 20260505085754 | 44 | 67 | 1.7 | 4.3 | 0.00 | 0.18 | 0.03 | 85 | 1011.2 |
| 20260505085511 | 44 | 28 | 0.9 | 2.6 | 0.00 | 0.18 | 0.03 | 85 | 1011.2 |
| 20260505085308 | 44 | 347 | 0.9 | 2.6 | 0.00 | 0.18 | 0.03 | 86 | 1011.2 |
| 20260505085143 | 44 | 54 | 1.7 | 3.5 | 0.00 | 0.18 | 0.03 | 86 | 1011.2 |
| 20260505085108 | 44 | 79 | 1.7 | 5.2 | 0.00 | 0.18 | 0.03 | 86 | 1011.2 |
| 20260505084909 | 44 | 88 | 1.7 | 5.2 | 0.00 | 0.18 | 0.03 | 86 | 1011.1 |
| 20260505084708 | 44 | 98 | 1.7 | 5.2 | 0.00 | 0.18 | 0.03 | 86 | 1011.1 |
| 20260505084642 | 44 | 98 | 2.6 | 5.2 | 0.00 | 0.18 | 0.03 | 86 | 1011.1 |
| 20260505084508 | 44 | 105 | 2.6 | 6.1 | 0.00 | 0.18 | 0.03 | 86 | 1011.2 |
| 20260505084306 | 44 | 105 | 2.6 | 6.1 | 0.00 | 0.18 | 0.03 | 86 | 1011.1 |
| 20260505084142 | 44 | 101 | 3.5 | 7.0 | 0.00 | 0.18 | 0.03 | 86 | 1010.9 |
| 20260505084105 | 44 | 93 | 3.5 | 7.8 | 0.00 | 0.18 | 0.03 | 87 | 1011.1 |
| 20260505083902 | 44 | 103 | 3.5 | 7.8 | 0.00 | 0.18 | 0.03 | 87 | 1011.1 |
| 20260505083702 | 44 | 85 | 4.3 | 7.8 | 0.00 | 0.18 | 0.03 | 87 | 1011.1 |
| 20260505083641 | 44 | 94 | 4.3 | 7.8 | 0.00 | 0.18 | 0.03 | 87 | 1010.9 |
| 20260505083503 | 44 | 92 | 5.2 | 7.8 | 0.00 | 0.18 | 0.03 | 87 | 1010.9 |
| 20260505083303 | 44 | 129 | 5.2 | 7.8 | 0.00 | 0.18 | 0.03 | 87 | 1010.9 |
| 20260505083141 | 44 | 110 | 4.3 | 7.8 | 0.00 | 0.18 | 0.03 | 87 | 1010.9 |
| 20260505083102 | 44 | 113 | 4.3 | 7.8 | 0.00 | 0.18 | 0.03 | 87 | 1010.9 |
| 20260505082900 | 44 | 117 | 4.3 | 7.8 | 0.00 | 0.18 | 0.03 | 88 | 1010.9 |
| 20260505082657 | 44 | 104 | 3.5 | 7.8 | 0.01 | 0.18 | 0.03 | 88 | 1010.9 |
| 20260505082648 | 44 | 108 | 2.6 | 6.1 | 0.01 | 0.18 | 0.03 | 88 | 1011.3 |
| 20260505082640 | 44 | 106 | 3.5 | 7.8 | 0.01 | 0.18 | 0.03 | 88 | 1010.9 |
| 20260505082457 | 44 | 99 | 3.5 | 7.0 | 0.01 | 0.18 | 0.03 | 88 | 1011.2 |
| 20260505082304 | 44 | 102 | 2.6 | 6.1 | 0.01 | 0.18 | 0.03 | 88 | 1011.3 |
| 20260505082058 | 44 | 111 | 2.6 | 6.1 | 0.01 | 0.18 | 0.03 | 87 | 1011.3 |
| 20260505081857 | 44 | 80 | 2.6 | 6.1 | 0.01 | 0.18 | 0.03 | 88 | 1011.3 |
| 20260505081657 | 44 | 85 | 1.7 | 5.2 | 0.01 | 0.18 | 0.03 | 88 | 1011.4 |
| 20260505081640 | 44 | 92 | 1.7 | 3.5 | 0.01 | 0.18 | 0.03 | 88 | 1011.4 |
| 20260505081457 | 44 | 84 | 1.7 | 3.5 | 0.01 | 0.18 | 0.03 | 88 | 1011.5 |
| 20260505081254 | 44 | 74 | 1.7 | 6.1 | 0.01 | 0.18 | 0.03 | 88 | 1011.5 |
| 20260505081140 | 44 | 74 | 1.7 | 6.1 | 0.01 | 0.18 | 0.03 | 88 | 1011.5 |
| 20260505081055 | 44 | 74 | 2.6 | 6.1 | 0.01 | 0.18 | 0.03 | 88 | 1011.7 |
| 20260505080852 | 44 | 94 | 2.6 | 6.1 | 0.01 | 0.18 | 0.03 | 89 | 1011.7 |
| 20260505080638 | 44 | 105 | 2.6 | 6.1 | 0.01 | 0.18 | 0.03 | 89 | 1011.7 |
| 20260505080454 | 44 | 113 | 2.6 | 6.1 | 0.01 | 0.18 | 0.03 | 90 | 1011.5 |
| 20260505080252 | 44 | 105 | 1.7 | 5.2 | 0.01 | 0.18 | 0.03 | 91 | 1011.5 |
| 20260505080138 | 44 | 135 | 1.7 | 5.2 | 0.01 | 0.18 | 0.03 | 91 | 1011.7 |
| 20260505080052 | 44 | 144 | 1.7 | 5.2 | 0.01 | 0.18 | 0.03 | 91 | 1011.7 |
| 20260505075852 | 44 | 98 | 1.7 | 3.5 | 0.01 | 0.18 | 0.03 | 91 | 1011.7 |
| 20260505075639 | 44 | 94 | 1.7 | 3.5 | 0.01 | 0.18 | 0.03 | 91 | 1011.7 |
| 20260505075451 | 44 | 101 | 1.7 | 3.5 | 0.01 | 0.18 | 0.03 | 91 | 1011.7 |
| 20260505075246 | 44 | 74 | 1.7 | 3.5 | 0.01 | 0.18 | 0.03 | 91 | 1011.8 |
| 20260505075140 | 44 | 80 | 1.7 | 3.5 | 0.01 | 0.18 | 0.03 | 92 | 1011.8 |
| 20260505075048 | 44 | 90 | 1.7 | 3.5 | 0.01 | 0.18 | 0.03 | 92 | 1011.8 |
| 20260505074848 | 44 | 128 | 1.7 | 3.5 | 0.01 | 0.18 | 0.03 | 92 | 1011.8 |
| 20260505074644 | 44 | 146 | 1.7 | 6.1 | 0.02 | 0.18 | 0.03 | 92 | 1011.9 |
| 20260505074640 | 44 | 80 | 1.7 | 3.5 | 0.01 | 0.18 | 0.03 | 92 | 1011.8 |
| 20260505074446 | 44 | 94 | 1.7 | 3.5 | 0.01 | 0.18 | 0.03 | 92 | 1011.8 |
| 20260505074255 | 44 | 88 | 1.7 | 6.1 | 0.02 | 0.18 | 0.03 | 92 | 1011.9 |
| 20260505074046 | 44 | 115 | 2.6 | 6.1 | 0.02 | 0.18 | 0.03 | 92 | 1011.9 |
| 20260505073844 | 44 | 93 | 2.6 | 6.1 | 0.02 | 0.18 | 0.03 | 92 | 1011.9 |
| 20260505073641 | 44 | 105 | 3.5 | 7.0 | 0.02 | 0.18 | 0.03 | 92 | 1011.9 |
| 20260505073636 | 44 | 98 | 3.5 | 7.0 | 0.02 | 0.18 | 0.03 | 92 | 1011.9 |
| 20260505073443 | 44 | 119 | 3.5 | 7.0 | 0.03 | 0.18 | 0.03 | 92 | 1012.0 |
| 20260505073242 | 44 | 104 | 3.5 | 7.0 | 0.03 | 0.18 | 0.03 | 92 | 1012.0 |
| 20260505073137 | 44 | 119 | 3.5 | 7.0 | 0.03 | 0.18 | 0.03 | 92 | 1012.2 |
| 20260505073039 | 44 | 120 | 3.5 | 7.0 | 0.03 | 0.18 | 0.03 | 92 | 1012.2 |
| 20260505072839 | 44 | 101 | 3.5 | 7.0 | 0.03 | 0.18 | 0.03 | 92 | 1012.2 |
| 20260505072637 | 44 | 122 | 3.5 | 7.0 | 0.02 | 0.17 | 0.02 | 93 | 1012.3 |
| 20260505072437 | 44 | 138 | 3.5 | 7.0 | 0.02 | 0.17 | 0.02 | 93 | 1012.2 |
| 20260505072238 | 44 | 141 | 2.6 | 6.1 | 0.02 | 0.17 | 0.02 | 92 | 1012.2 |
| 20260505072141 | 44 | 111 | 2.6 | 5.2 | 0.02 | 0.17 | 0.02 | 92 | 1012.3 |
| 20260505072136 | 44 | 128 | 2.6 | 5.2 | 0.02 | 0.17 | 0.02 | 92 | 1012.2 |
| 20260505072037 | 44 | 121 | 2.6 | 5.2 | 0.02 | 0.17 | 0.02 | 92 | 1012.2 |
| 20260505071838 | 44 | 112 | 2.6 | 5.2 | 0.02 | 0.17 | 0.02 | 93 | 1012.2 |
| 20260505071740 | 44 | 109 | 2.6 | 5.2 | 0.02 | 0.17 | 0.02 | 93 | 1012.4 |
| 20260505071434 | 44 | 116 | 2.6 | 5.2 | 0.02 | 0.17 | 0.02 | 92 | 1012.4 |
| 20260505071250 | 44 | 116 | 2.6 | 5.2 | 0.02 | 0.17 | 0.02 | 92 | 1012.3 |
| 20260505071036 | 44 | 143 | 2.6 | 5.2 | 0.02 | 0.17 | 0.02 | 93 | 1012.3 |
| 20260505070835 | 44 | 124 | 2.6 | 5.2 | 0.02 | 0.17 | 0.02 | 93 | 1012.3 |
| 20260505070636 | 44 | 169 | 2.6 | 5.2 | 0.02 | 0.17 | 0.02 | 93 | 1012.5 |
| 20260505070436 | 44 | 158 | 2.6 | 5.2 | 0.02 | 0.17 | 0.02 | 93 | 1012.5 |
| 20260505070234 | 44 | 169 | 2.6 | 5.2 | 0.02 | 0.17 | 0.02 | 93 | 1012.5 |
| 20260505070134 | 44 | 173 | 2.6 | 5.2 | 0.02 | 0.17 | 0.02 | 93 | 1012.5 |
| 20260505070034 | 44 | 135 | 2.6 | 5.2 | 0.02 | 0.17 | 0.02 | 93 | 1012.5 |
| 20260505065833 | 44 | 127 | 2.6 | 5.2 | 0.02 | 0.17 | 0.02 | 93 | 1012.6 |
| 20260505065637 | 44 | 117 | 1.7 | 5.2 | 0.02 | 0.17 | 0.02 | 92 | 1012.6 |
| 20260505065633 | 44 | 130 | 1.7 | 5.2 | 0.02 | 0.17 | 0.02 | 92 | 1012.6 |
| 20260505065435 | 44 | 97 | 1.7 | 5.2 | 0.02 | 0.17 | 0.02 | 92 | 1012.6 |
| 20260505065233 | 44 | 103 | 1.7 | 5.2 | 0.02 | 0.17 | 0.02 | 92 | 1012.6 |
| 20260505065133 | 44 | 117 | 1.7 | 5.2 | 0.02 | 0.17 | 0.02 | 92 | 1012.6 |
| 20260505065030 | 44 | 116 | 1.7 | 3.5 | 0.02 | 0.17 | 0.02 | 92 | 1012.6 |
| 20260505064832 | 44 | 118 | 1.7 | 3.5 | 0.02 | 0.17 | 0.02 | 92 | 1012.8 |
| 20260505064631 | 44 | 182 | 1.7 | 3.5 | 0.02 | 0.17 | 0.02 | 92 | 1012.9 |
| 20260505064429 | 44 | 185 | 2.6 | 4.3 | 0.02 | 0.17 | 0.02 | 92 | 1013.0 |
| 20260505064227 | 44 | 188 | 1.7 | 4.3 | 0.01 | 0.16 | 0.01 | 92 | 1013.0 |
| 20260505064134 | 44 | 194 | 1.7 | 4.3 | 0.01 | 0.16 | 0.01 | 92 | 1012.9 |
| 20260505064028 | 44 | 198 | 1.7 | 4.3 | 0.01 | 0.16 | 0.01 | 92 | 1012.9 |
| 20260505063825 | 44 | 202 | 0.9 | 4.3 | 0.01 | 0.16 | 0.01 | 92 | 1013.0 |
| 20260505063622 | 44 | 195 | 0.9 | 4.3 | 0.01 | 0.16 | 0.01 | 92 | 1012.9 |
| 20260505063422 | 44 | 205 | 0.0 | 3.5 | 0.00 | 0.15 | 0.01 | 92 | 1012.9 |
| 20260505063222 | 44 | 122 | 0.0 | 0.0 | 0.00 | 0.15 | 0.00 | 91 | 1013.0 |
| 20260505063135 | 44 | 122 | 0.0 | 0.0 | 0.00 | 0.15 | 0.00 | 91 | 1012.9 |
| 20260505063023 | 44 | 122 | 0.0 | 0.0 | 0.00 | 0.15 | 0.00 | 91 | 1012.9 |
| 20260505062821 | 44 | 122 | 0.0 | 1.7 | 0.00 | 0.15 | 0.00 | 91 | 1012.9 |
| 20260505062620 | 44 | 122 | 0.0 | 1.7 | 0.00 | 0.15 | 0.00 | 91 | 1012.9 |
| 20260505062418 | 44 | 122 | 0.9 | 1.7 | 0.00 | 0.15 | 0.00 | 91 | 1012.9 |
| 20260505062218 | 44 | 122 | 0.9 | 1.7 | 0.00 | 0.15 | 0.00 | 92 | 1012.8 |
| 20260505062133 | 44 | 122 | 0.9 | 1.7 | 0.00 | 0.15 | 0.00 | 92 | 1012.8 |
| 20260505062018 | 44 | 122 | 0.9 | 1.7 | 0.00 | 0.15 | 0.00 | 92 | 1012.9 |
| 20260505061816 | 44 | 122 | 0.9 | 2.6 | 0.00 | 0.15 | 0.00 | 92 | 1012.9 |
| 20260505061614 | 44 | 122 | 0.9 | 2.6 | 0.00 | 0.15 | 0.00 | 92 | 1012.8 |
| 20260505061414 | 44 | 122 | 0.9 | 2.6 | 0.01 | 0.15 | 0.00 | 92 | 1012.9 |
| 20260505061210 | 44 | 120 | 0.9 | 2.6 | 0.01 | 0.15 | 0.00 | 92 | 1012.8 |
| 20260505061136 | 44 | 120 | 0.9 | 2.6 | 0.01 | 0.15 | 0.00 | 92 | 1012.8 |
| 20260505061131 | 44 | 169 | 0.9 | 1.7 | 0.02 | 0.15 | 0.00 | 92 | 1012.9 |
| 20260505061008 | 44 | 120 | 0.9 | 2.6 | 0.01 | 0.15 | 0.00 | 92 | 1012.8 |
| 20260505060810 | 44 | 169 | 0.9 | 1.7 | 0.02 | 0.15 | 0.00 | 92 | 1012.9 |
| 20260505060608 | 44 | 169 | 0.9 | 1.7 | 0.02 | 0.15 | 0.00 | 92 | 1012.9 |
| 20260505060408 | 44 | 169 | 0.9 | 1.7 | 0.02 | 0.15 | 0.00 | 93 | 1012.9 |
| 20260505060209 | 44 | 169 | 0.9 | 1.7 | 0.02 | 0.15 | 0.00 | 93 | 1012.9 |
| 20260505060130 | 44 | 169 | 0.9 | 1.7 | 0.03 | 0.15 | 0.00 | 93 | 1012.9 |
| 20260505060008 | 44 | 169 | 0.9 | 1.7 | 0.03 | 0.15 | 0.00 | 93 | 1012.9 |
| 20260505055803 | 44 | 169 | 0.9 | 1.7 | 0.03 | 0.15 | 0.15 | 93 | 1012.8 |
| 20260505055626 | 44 | 169 | 0.9 | 1.7 | 0.03 | 0.15 | 0.15 | 93 | 1012.8 |
| 20260505055602 | 44 | 169 | 0.9 | 3.5 | 0.03 | 0.15 | 0.15 | 93 | 1012.8 |
| 20260505055400 | 44 | 169 | 0.9 | 3.5 | 0.04 | 0.15 | 0.15 | 93 | 1012.8 |
| 20260505055202 | 44 | 169 | 0.9 | 3.5 | 0.04 | 0.15 | 0.15 | 93 | 1012.8 |
| 20260505055133 | 44 | 169 | 0.9 | 3.5 | 0.04 | 0.15 | 0.15 | 93 | 1012.9 |
| 20260505055127 | 44 | 169 | 0.9 | 3.5 | 0.04 | 0.15 | 0.15 | 93 | 1012.8 |
| 20260505055002 | 44 | 169 | 0.9 | 3.5 | 0.04 | 0.15 | 0.15 | 93 | 1012.8 |
| 20260505054801 | 44 | 169 | 0.9 | 3.5 | 0.04 | 0.15 | 0.15 | 93 | 1012.9 |
| 20260505054601 | 44 | 167 | 0.9 | 3.5 | 0.04 | 0.15 | 0.15 | 93 | 1012.9 |
| 20260505054402 | 44 | 167 | 0.9 | 3.5 | 0.05 | 0.15 | 0.15 | 93 | 1012.9 |
| 20260505054201 | 44 | 167 | 1.7 | 3.5 | 0.05 | 0.15 | 0.15 | 94 | 1012.9 |
| 20260505054126 | 44 | 171 | 1.7 | 3.5 | 0.05 | 0.15 | 0.15 | 94 | 1012.9 |
| 20260505054001 | 44 | 171 | 1.7 | 3.5 | 0.06 | 0.15 | 0.15 | 94 | 1012.8 |
| 20260505053801 | 44 | 167 | 1.7 | 3.5 | 0.06 | 0.15 | 0.15 | 93 | 1012.8 |
| 20260505053624 | 44 | 155 | 1.7 | 2.6 | 0.07 | 0.15 | 0.15 | 93 | 1012.6 |
| 20260505053601 | 44 | 155 | 1.7 | 3.5 | 0.07 | 0.15 | 0.15 | 93 | 1012.6 |
| 20260505053401 | 44 | 147 | 1.7 | 3.5 | 0.07 | 0.15 | 0.15 | 93 | 1012.5 |
| 20260505053201 | 44 | 123 | 2.6 | 4.3 | 0.07 | 0.15 | 0.15 | 93 | 1012.5 |
| 20260505053124 | 44 | 113 | 2.6 | 5.2 | 0.07 | 0.15 | 0.15 | 93 | 1012.5 |
| 20260505053002 | 44 | 113 | 2.6 | 5.2 | 0.07 | 0.15 | 0.15 | 93 | 1012.5 |
| 20260505052801 | 44 | 89 | 2.6 | 5.2 | 0.07 | 0.15 | 0.15 | 93 | 1012.5 |
| 20260505052624 | 44 | 95 | 2.6 | 5.2 | 0.07 | 0.15 | 0.15 | 93 | 1012.6 |
| 20260505052602 | 44 | 103 | 2.6 | 5.2 | 0.07 | 0.15 | 0.15 | 93 | 1012.6 |
| 20260505052359 | 44 | 80 | 1.7 | 5.2 | 0.07 | 0.15 | 0.15 | 93 | 1012.6 |
| 20260505052159 | 44 | 87 | 0.9 | 5.2 | 0.07 | 0.15 | 0.15 | 93 | 1012.6 |
| 20260505052125 | 44 | 86 | 0.9 | 3.5 | 0.07 | 0.15 | 0.15 | 93 | 1012.6 |
| 20260505051958 | 44 | 94 | 0.9 | 2.6 | 0.07 | 0.15 | 0.15 | 93 | 1012.6 |
| 20260505051759 | 44 | 102 | 0.9 | 2.6 | 0.07 | 0.15 | 0.15 | 93 | 1012.8 |
| 20260505051624 | 44 | 59 | 0.9 | 2.6 | 0.07 | 0.15 | 0.15 | 93 | 1012.9 |
| 20260505051601 | 44 | 59 | 0.9 | 3.5 | 0.07 | 0.15 | 0.15 | 93 | 1012.9 |
| 20260505051401 | 44 | 346 | 1.7 | 4.3 | 0.06 | 0.14 | 0.14 | 93 | 1013.0 |
| 20260505051158 | 44 | 331 | 1.7 | 4.3 | 0.06 | 0.14 | 0.14 | 93 | 1013.2 |
| 20260505051125 | 44 | 331 | 1.7 | 4.3 | 0.06 | 0.14 | 0.14 | 93 | 1013.2 |
| 20260505050959 | 44 | 331 | 2.6 | 4.3 | 0.06 | 0.14 | 0.14 | 93 | 1013.4 |
| 20260505050759 | 44 | 340 | 2.6 | 4.3 | 0.05 | 0.13 | 0.13 | 93 | 1013.5 |
| 20260505050630 | 44 | 303 | 3.5 | 7.0 | 0.04 | 0.12 | 0.13 | 93 | 1013.5 |
| 20260505050624 | 44 | 317 | 2.6 | 4.3 | 0.05 | 0.13 | 0.13 | 93 | 1013.5 |
| 20260505050559 | 44 | 325 | 2.6 | 4.3 | 0.05 | 0.13 | 0.13 | 93 | 1013.5 |
| 20260505050359 | 44 | 296 | 2.6 | 6.1 | 0.05 | 0.13 | 0.13 | 93 | 1013.5 |
| 20260505050236 | 44 | 308 | 3.5 | 7.0 | 0.05 | 0.13 | 0.13 | 93 | 1013.5 |
| 20260505041758 | 45 | 336 | 0.9 | 2.6 | 0.07 | 0.08 | 0.08 | 89 | 1013.2 |
| 20260505041624 | 45 | 345 | 0.9 | 2.6 | 0.07 | 0.08 | 0.08 | 89 | 1013.2 |
| 20260505041557 | 45 | 345 | 0.9 | 2.6 | 0.07 | 0.08 | 0.08 | 89 | 1013.2 |
| 20260505041358 | 45 | 345 | 0.9 | 2.6 | 0.07 | 0.08 | 0.08 | 89 | 1013.0 |
| 20260505041157 | 45 | 345 | 0.9 | 2.6 | 0.07 | 0.08 | 0.08 | 89 | 1013.1 |
| 20260505041130 | 45 | 345 | 0.9 | 2.6 | 0.07 | 0.08 | 0.08 | 88 | 1013.0 |
| 20260505041125 | 45 | 345 | 0.9 | 2.6 | 0.07 | 0.08 | 0.08 | 89 | 1013.1 |
| 20260505040957 | 45 | 345 | 0.9 | 2.6 | 0.07 | 0.08 | 0.08 | 89 | 1013.1 |
| 20260505040756 | 45 | 345 | 0.9 | 2.6 | 0.07 | 0.08 | 0.08 | 89 | 1013.0 |
| 20260505040558 | 45 | 345 | 0.0 | 2.6 | 0.07 | 0.08 | 0.08 | 88 | 1013.0 |
| 20260505040358 | 45 | 351 | 0.0 | 1.7 | 0.07 | 0.08 | 0.08 | 88 | 1012.9 |
| 20260505040156 | 46 | 355 | 0.0 | 0.0 | 0.07 | 0.08 | 0.08 | 88 | 1012.9 |
| 20260505040126 | 46 | 355 | 0.0 | 0.9 | 0.07 | 0.08 | 0.08 | 88 | 1012.9 |
| 20260505035957 | 46 | 355 | 0.0 | 1.7 | 0.07 | 0.08 | 0.08 | 87 | 1012.9 |
| 20260505035758 | 46 | 355 | 0.9 | 1.7 | 0.07 | 0.08 | 0.08 | 87 | 1012.8 |
| 20260505035625 | 46 | 355 | 0.9 | 1.7 | 0.07 | 0.08 | 0.08 | 87 | 1012.8 |
| 20260505035556 | 46 | 355 | 0.9 | 1.7 | 0.06 | 0.07 | 0.07 | 87 | 1012.8 |
| 20260505035356 | 46 | 355 | 0.9 | 1.7 | 0.06 | 0.07 | 0.07 | 86 | 1012.6 |
| 20260505035158 | 46 | 355 | 0.9 | 1.7 | 0.06 | 0.07 | 0.07 | 86 | 1012.8 |
| 20260505035124 | 46 | 355 | 0.9 | 1.7 | 0.06 | 0.07 | 0.07 | 86 | 1012.8 |
| 20260505034958 | 46 | 355 | 0.9 | 1.7 | 0.05 | 0.06 | 0.07 | 85 | 1012.8 |
| 20260505034756 | 46 | 355 | 0.9 | 1.7 | 0.05 | 0.06 | 0.06 | 85 | 1012.8 |
| 20260505034625 | 46 | 355 | 0.0 | 1.7 | 0.05 | 0.06 | 0.06 | 85 | 1012.9 |
| 20260505034557 | 46 | 355 | 0.0 | 1.7 | 0.05 | 0.06 | 0.06 | 85 | 1012.9 |
| 20260505034358 | 46 | 270 | 0.0 | 1.7 | 0.04 | 0.05 | 0.06 | 86 | 1012.9 |
| 20260505034158 | 46 | 270 | 0.9 | 1.7 | 0.04 | 0.05 | 0.05 | 86 | 1012.8 |
| 20260505034126 | 46 | 270 | 0.9 | 1.7 | 0.04 | 0.05 | 0.05 | 86 | 1012.8 |
| 20260505033958 | 46 | 270 | 0.9 | 3.5 | 0.04 | 0.05 | 0.05 | 85 | 1012.9 |
| 20260505033758 | 46 | 270 | 1.7 | 3.5 | 0.03 | 0.04 | 0.05 | 85 | 1012.9 |
| 20260505033625 | 47 | 270 | 1.7 | 5.2 | 0.03 | 0.04 | 0.04 | 85 | 1013.0 |
| 20260505033558 | 47 | 270 | 1.7 | 5.2 | 0.03 | 0.04 | 0.04 | 85 | 1012.9 |
| 20260505033358 | 47 | 270 | 2.6 | 5.2 | 0.03 | 0.04 | 0.04 | 84 | 1013.0 |
| 20260505033157 | 47 | 261 | 2.6 | 5.2 | 0.03 | 0.04 | 0.04 | 84 | 1013.0 |
| 20260505033132 | 47 | 234 | 1.7 | 3.5 | 0.00 | 0.01 | 0.02 | 81 | 1012.9 |
| 20260505033126 | 47 | 265 | 2.6 | 5.2 | 0.02 | 0.03 | 0.03 | 84 | 1013.0 |
| 20260505032956 | 47 | 248 | 2.6 | 5.2 | 0.02 | 0.03 | 0.03 | 83 | 1012.9 |
| 20260505032756 | 47 | 266 | 2.6 | 5.2 | 0.02 | 0.03 | 0.03 | 83 | 1012.9 |
| 20260505032625 | 47 | 265 | 2.6 | 5.2 | 0.01 | 0.02 | 0.02 | 82 | 1012.9 |
| 20260505032557 | 47 | 263 | 2.6 | 4.3 | 0.01 | 0.02 | 0.02 | 82 | 1012.8 |
| 20260505032357 | 47 | 247 | 2.6 | 4.3 | 0.01 | 0.02 | 0.02 | 82 | 1012.9 |
| 20260505032236 | 47 | 237 | 1.7 | 3.5 | 0.00 | 0.01 | 0.02 | 81 | 1012.9 |
| 20260505031957 | 48 | 236 | 1.7 | 3.5 | 0.00 | 0.01 | 0.01 | 81 | 1012.8 |
| 20260505031758 | 48 | 242 | 1.7 | 3.5 | 0.00 | 0.01 | 0.01 | 80 | 1012.6 |
| 20260505031626 | 48 | 242 | 1.7 | 3.5 | 0.00 | 0.01 | 0.01 | 80 | 1012.8 |
| 20260505031557 | 48 | 242 | 1.7 | 3.5 | 0.00 | 0.01 | 0.01 | 78 | 1012.8 |
| 20260505031401 | 48 | 238 | 1.7 | 2.6 | 0.00 | 0.01 | 0.01 | 78 | 1012.6 |
| 20260505031157 | 47 | 253 | 1.7 | 2.6 | 0.00 | 0.01 | 0.01 | 78 | 1012.6 |
| 20260505031131 | 47 | 225 | 0.9 | 1.7 | 0.00 | 0.01 | 0.01 | 80 | 1012.5 |
| 20260505031126 | 47 | 253 | 1.7 | 2.6 | 0.00 | 0.01 | 0.01 | 78 | 1012.6 |
| 20260505030958 | 47 | 244 | 0.9 | 2.6 | 0.00 | 0.01 | 0.01 | 79 | 1012.6 |
| 20260505030758 | 47 | 237 | 0.9 | 1.7 | 0.00 | 0.01 | 0.01 | 80 | 1012.6 |
| 20260505030557 | 47 | 221 | 0.9 | 1.7 | 0.00 | 0.01 | 0.01 | 80 | 1012.6 |
| 20260505030358 | 47 | 211 | 0.9 | 1.7 | 0.00 | 0.01 | 0.01 | 79 | 1012.4 |
| 20260505030158 | 47 | 215 | 0.9 | 1.7 | 0.00 | 0.01 | 0.01 | 79 | 1012.4 |
| 20260505030126 | 47 | 217 | 0.9 | 1.7 | 0.00 | 0.01 | 0.01 | 79 | 1012.4 |
| 20260505025958 | 47 | 217 | 0.9 | 1.7 | 0.00 | 0.01 | 0.01 | 79 | 1012.3 |
| 20260505025758 | 47 | 221 | 0.9 | 1.7 | 0.00 | 0.01 | 0.01 | 79 | 1012.3 |
| 20260505025624 | 47 | 221 | 0.9 | 1.7 | 0.00 | 0.01 | 0.01 | 79 | 1012.3 |
| 20260505025558 | 47 | 222 | 0.9 | 1.7 | 0.00 | 0.01 | 0.01 | 79 | 1012.3 |
| 20260505025357 | 47 | 222 | 0.9 | 2.6 | 0.00 | 0.01 | 0.01 | 79 | 1012.3 |
| 20260505025158 | 47 | 222 | 1.7 | 2.6 | 0.00 | 0.01 | 0.01 | 78 | 1012.2 |
| 20260505025132 | 48 | 223 | 3.5 | 5.2 | 0.00 | 0.01 | 0.01 | 77 | 1011.9 |
| 20260505025126 | 47 | 222 | 1.7 | 3.5 | 0.00 | 0.01 | 0.01 | 78 | 1012.2 |
| 20260505024956 | 47 | 212 | 1.7 | 3.5 | 0.00 | 0.01 | 0.01 | 78 | 1012.3 |
| 20260505024758 | 47 | 212 | 2.6 | 4.3 | 0.00 | 0.01 | 0.01 | 78 | 1012.2 |
| 20260505024626 | 47 | 212 | 2.6 | 5.2 | 0.00 | 0.01 | 0.01 | 78 | 1012.2 |
| 20260505024557 | 47 | 213 | 2.6 | 5.2 | 0.00 | 0.01 | 0.01 | 78 | 1012.2 |
| 20260505024356 | 47 | 210 | 3.5 | 5.2 | 0.00 | 0.01 | 0.01 | 78 | 1012.0 |
| 20260505024235 | 47 | 223 | 3.5 | 5.2 | 0.00 | 0.01 | 0.01 | 77 | 1011.9 |
| 20260505023957 | 48 | 217 | 3.5 | 5.2 | 0.00 | 0.01 | 0.01 | 77 | 1011.9 |
| 20260505023757 | 48 | 232 | 3.5 | 6.1 | 0.00 | 0.01 | 0.01 | 77 | 1011.9 |
| 20260505023626 | 48 | 244 | 3.5 | 6.1 | 0.00 | 0.01 | 0.01 | 77 | 1011.9 |
| 20260505023557 | 48 | 231 | 2.6 | 6.1 | 0.00 | 0.01 | 0.01 | 76 | 1011.9 |
| 20260505023356 | 48 | 244 | 2.6 | 6.1 | 0.00 | 0.01 | 0.01 | 76 | 1011.9 |
| 20260505023156 | 48 | 236 | 1.7 | 6.1 | 0.00 | 0.01 | 0.01 | 76 | 1011.9 |
| 20260505023124 | 48 | 234 | 1.7 | 6.1 | 0.00 | 0.01 | 0.01 | 76 | 1011.9 |
| 20260505022958 | 48 | 252 | 1.7 | 6.1 | 0.00 | 0.01 | 0.01 | 75 | 1011.9 |
| 20260505022756 | 48 | 249 | 1.7 | 2.6 | 0.00 | 0.01 | 0.01 | 75 | 1011.8 |
| 20260505022625 | 48 | 277 | 1.7 | 2.6 | 0.00 | 0.01 | 0.01 | 74 | 1011.8 |
| 20260505022556 | 48 | 282 | 1.7 | 2.6 | 0.00 | 0.01 | 0.01 | 74 | 1011.8 |
| 20260505022356 | 48 | 293 | 1.7 | 2.6 | 0.00 | 0.01 | 0.01 | 74 | 1011.8 |
| 20260505022156 | 48 | 291 | 1.7 | 3.5 | 0.01 | 0.01 | 0.01 | 73 | 1011.5 |
| 20260505022124 | 48 | 291 | 1.7 | 3.5 | 0.01 | 0.01 | 0.01 | 73 | 1011.5 |
| 20260505021953 | 49 | 265 | 1.7 | 4.3 | 0.01 | 0.01 | 0.01 | 73 | 1011.7 |
| 20260505021753 | 49 | 247 | 1.7 | 4.3 | 0.01 | 0.01 | 0.01 | 72 | 1011.7 |
| 20260505021624 | 49 | 242 | 1.7 | 4.3 | 0.01 | 0.01 | 0.01 | 72 | 1011.7 |
| 20260505021554 | 49 | 242 | 1.7 | 4.3 | 0.01 | 0.01 | 0.01 | 73 | 1011.5 |
| 20260505021350 | 49 | 242 | 1.7 | 4.3 | 0.01 | 0.01 | 0.01 | 72 | 1011.5 |
| 20260505021152 | 49 | 228 | 1.7 | 4.3 | 0.01 | 0.01 | 0.01 | 71 | 1011.5 |
| 20260505021125 | 49 | 229 | 1.7 | 4.3 | 0.01 | 0.01 | 0.01 | 71 | 1011.5 |
| 20260505020951 | 49 | 224 | 0.9 | 3.5 | 0.01 | 0.01 | 0.01 | 71 | 1011.5 |
| 20260505020750 | 49 | 236 | 0.9 | 2.6 | 0.01 | 0.01 | 0.01 | 72 | 1011.5 |
| 20260505020625 | 49 | 236 | 0.0 | 2.6 | 0.01 | 0.01 | 0.01 | 72 | 1011.5 |
| 20260505020546 | 49 | 244 | 0.0 | 2.6 | 0.01 | 0.01 | 0.01 | 72 | 1011.5 |
| 20260505020346 | 49 | 32 | 0.0 | 1.7 | 0.01 | 0.01 | 0.01 | 71 | 1011.7 |
| 20260505020124 | 49 | 32 | 0.9 | 1.7 | 0.01 | 0.01 | 0.01 | 70 | 1011.8 |
| 20260505015944 | 49 | 32 | 0.9 | 3.5 | 0.01 | 0.01 | 0.01 | 70 | 1011.8 |
| 20260505015742 | 49 | 32 | 0.9 | 3.5 | 0.01 | 0.01 | 0.01 | 71 | 1011.8 |
| 20260505015626 | 49 | 32 | 0.9 | 3.5 | 0.01 | 0.01 | 0.01 | 71 | 1011.8 |
| 20260505015539 | 49 | 32 | 0.9 | 3.5 | 0.01 | 0.01 | 0.01 | 71 | 1011.8 |
| 20260505015340 | 49 | 32 | 0.9 | 3.5 | 0.01 | 0.01 | 0.01 | 71 | 1011.7 |
| 20260505015123 | 49 | 45 | 0.9 | 3.5 | 0.01 | 0.01 | 0.01 | 71 | 1011.5 |
| 20260505014936 | 49 | 355 | 0.9 | 1.7 | 0.01 | 0.01 | 0.01 | 71 | 1011.7 |
| 20260505014737 | 49 | 309 | 0.0 | 1.7 | 0.01 | 0.01 | 0.01 | 72 | 1011.7 |
| 20260505014623 | 49 | 309 | 0.0 | 1.7 | 0.01 | 0.01 | 0.01 | 72 | 1011.7 |
| 20260505014536 | 49 | 275 | 0.0 | 1.7 | 0.01 | 0.01 | 0.01 | 72 | 1011.7 |
| 20260505014336 | 49 | 275 | 0.0 | 1.7 | 0.01 | 0.01 | 0.01 | 72 | 1011.5 |
| 20260505014123 | 50 | 275 | 0.0 | 1.7 | 0.01 | 0.01 | 0.01 | 71 | 1011.4 |
| 20260505013936 | 50 | 275 | 0.9 | 2.6 | 0.01 | 0.01 | 0.01 | 70 | 1011.2 |
| 20260505013733 | 50 | 275 | 0.9 | 5.2 | 0.01 | 0.01 | 0.01 | 69 | 1011.1 |
| 20260505013620 | 50 | 275 | 0.9 | 5.2 | 0.01 | 0.01 | 0.01 | 68 | 1011.1 |
| 20260505013535 | 50 | 275 | 0.9 | 5.2 | 0.01 | 0.01 | 0.01 | 68 | 1011.1 |
| 20260505013336 | 50 | 271 | 1.7 | 5.2 | 0.01 | 0.01 | 0.01 | 68 | 1011.2 |
| 20260505013120 | 50 | 271 | 1.7 | 5.2 | 0.01 | 0.01 | 0.01 | 68 | 1011.3 |
| 20260505012936 | 50 | 287 | 1.7 | 5.2 | 0.01 | 0.01 | 0.01 | 67 | 1011.4 |
| 20260505012735 | 51 | 250 | 1.7 | 4.3 | 0.01 | 0.01 | 0.01 | 68 | 1011.4 |
| 20260505012620 | 51 | 294 | 0.9 | 4.3 | 0.01 | 0.01 | 0.01 | 67 | 1011.4 |
| 20260505012537 | 51 | 294 | 0.9 | 4.3 | 0.01 | 0.01 | 0.01 | 66 | 1011.5 |
| 20260505012335 | 51 | 297 | 0.9 | 4.3 | 0.01 | 0.01 | 0.01 | 66 | 1011.5 |
| 20260505012134 | 51 | 317 | 0.0 | 1.7 | 0.00 | 0.00 | 0.01 | 65 | 1011.5 |
| 20260505012120 | 51 | 325 | 0.0 | 1.7 | 0.00 | 0.00 | 0.00 | 65 | 1011.5 |
| 20260505011930 | 51 | 325 | 0.0 | 2.6 | 0.00 | 0.00 | 0.00 | 66 | 1011.5 |
| 20260505011728 | 51 | 325 | 0.9 | 3.5 | 0.00 | 0.00 | 0.00 | 64 | 1011.5 |
| 20260505011622 | 51 | 325 | 0.9 | 3.5 | 0.00 | 0.00 | 0.00 | 64 | 1011.4 |
| 20260505011526 | 51 | 325 | 1.7 | 4.3 | 0.00 | 0.00 | 0.00 | 63 | 1011.4 |
| 20260505011326 | 51 | 325 | 1.7 | 4.3 | 0.00 | 0.00 | 0.00 | 63 | 1011.4 |
| 20260505011120 | 51 | 325 | 2.6 | 14.8 | 0.00 | 0.00 | 0.00 | 62 | 1011.5 |
| 20260505010926 | 51 | 308 | 4.3 | 14.8 | 0.00 | 0.00 | 0.00 | 62 | 1011.5 |
| 20260505010726 | 51 | 313 | 4.3 | 14.8 | 0.00 | 0.00 | 0.00 | 62 | 1011.5 |
| 20260505010621 | 51 | 320 | 5.2 | 14.8 | 0.00 | 0.00 | 0.00 | 62 | 1011.4 |
| 20260505010523 | 51 | 326 | 6.1 | 14.8 | 0.00 | 0.00 | 0.00 | 62 | 1011.4 |
| 20260505010323 | 52 | 310 | 7.0 | 14.8 | 0.00 | 0.00 | 0.00 | 64 | 1011.4 |
| 20260505010120 | 52 | 279 | 8.7 | 14.8 | 0.00 | 0.00 | 0.00 | 63 | 1011.4 |
| 20260505005920 | 52 | 301 | 8.7 | 14.8 | 0.00 | 0.00 | 0.00 | 60 | 1011.4 |
| 20260505005722 | 53 | 270 | 9.6 | 14.8 | 0.00 | 0.00 | 0.00 | 58 | 1011.3 |
| 20260505005620 | 53 | 304 | 9.6 | 14.8 | 0.00 | 0.00 | 0.00 | 57 | 1011.4 |
| 20260505005518 | 53 | 311 | 10.4 | 14.8 | 0.00 | 0.00 | 0.00 | 56 | 1011.4 |
| 20260505005318 | 53 | 326 | 9.6 | 16.5 | 0.00 | 0.00 | 0.00 | 53 | 1011.2 |
| 20260505005124 | 54 | 319 | 9.6 | 16.5 | 0.00 | 0.00 | 0.00 | 53 | 1011.2 |
| 20260505005120 | 54 | 335 | 9.6 | 16.5 | 0.00 | 0.00 | 0.00 | 53 | 1011.2 |
| 20260505004923 | 54 | 331 | 9.6 | 16.5 | 0.00 | 0.00 | 0.00 | 52 | 1011.2 |
| 20260505004719 | 55 | 315 | 9.6 | 16.5 | 0.00 | 0.00 | 0.00 | 50 | 1011.2 |
| 20260505004622 | 55 | 321 | 8.7 | 16.5 | 0.00 | 0.00 | 0.00 | 50 | 1011.2 |
| 20260505004518 | 55 | 325 | 8.7 | 16.5 | 0.00 | 0.00 | 0.00 | 49 | 1011.2 |
| 20260505004319 | 55 | 300 | 8.7 | 13.9 | 0.00 | 0.00 | 0.00 | 49 | 1011.2 |
| 20260505004118 | 55 | 309 | 7.8 | 13.9 | 0.00 | 0.00 | 0.00 | 48 | 1011.1 |
| 20260505003918 | 55 | 315 | 7.0 | 11.3 | 0.00 | 0.00 | 0.00 | 48 | 1011.1 |
| 20260505003720 | 55 | 312 | 7.0 | 11.3 | 0.00 | 0.00 | 0.00 | 48 | 1010.9 |
| 20260505003620 | 56 | 308 | 6.1 | 11.3 | 0.00 | 0.00 | 0.00 | 47 | 1010.9 |
| 20260505003519 | 56 | 273 | 6.1 | 11.3 | 0.00 | 0.00 | 0.00 | 47 | 1011.1 |
| 20260505003318 | 56 | 310 | 5.2 | 11.3 | 0.00 | 0.00 | 0.00 | 47 | 1011.1 |
| 20260505003118 | 56 | 298 | 4.3 | 11.3 | 0.00 | 0.00 | 0.00 | 44 | 1011.1 |
| 20260505002919 | 56 | 280 | 3.5 | 7.8 | 0.00 | 0.00 | 0.00 | 43 | 1011.1 |
| 20260505002718 | 56 | 297 | 2.6 | 7.8 | 0.00 | 0.00 | 0.00 | 44 | 1011.1 |
| 20260505002619 | 56 | 294 | 2.6 | 7.8 | 0.00 | 0.00 | 0.00 | 44 | 1011.1 |
| 20260505002518 | 56 | 294 | 2.6 | 7.8 | 0.00 | 0.00 | 0.00 | 44 | 1011.1 |
| 20260505002316 | 56 | 5 | 2.6 | 7.0 | 0.00 | 0.00 | 0.00 | 44 | 1011.1 |
| 20260505002126 | 56 | 78 | 6.1 | 14.8 | 0.00 | 0.00 | 0.00 | 45 | 1010.8 |
| 20260505002116 | 56 | 228 | 2.6 | 6.1 | 0.00 | 0.00 | 0.00 | 44 | 1010.9 |
| 20260505001918 | 56 | 15 | 3.5 | 10.4 | 0.00 | 0.00 | 0.00 | 44 | 1010.8 |
| 20260505001714 | 56 | 69 | 5.2 | 11.3 | 0.00 | 0.00 | 0.00 | 44 | 1010.8 |
| 20260505001649 | 56 | 69 | 7.8 | 14.8 | 0.00 | 0.00 | 0.00 | 45 | 1010.7 |
| 20260505001514 | 56 | 93 | 7.0 | 14.8 | 0.00 | 0.00 | 0.00 | 45 | 1010.8 |
| 20260505001312 | 56 | 76 | 7.0 | 14.8 | 0.00 | 0.00 | 0.00 | 45 | 1010.8 |
| 20260505001238 | 56 | 76 | 6.1 | 13.0 | 0.00 | 0.00 | 0.00 | 44 | 1010.6 |
| 20260505001114 | 56 | 76 | 7.8 | 14.8 | 0.00 | 0.00 | 0.00 | 45 | 1010.7 |
| 20260505000913 | 56 | 84 | 7.8 | 14.8 | 0.00 | 0.00 | 0.00 | 44 | 1010.6 |
| 20260505000732 | 56 | 88 | 7.0 | 14.8 | 0.00 | 0.00 | 0.00 | 44 | 1010.6 |
| 20260505000512 | 56 | 84 | 6.1 | 13.0 | 0.00 | 0.00 | 0.00 | 43 | 1010.6 |
| 20260505000311 | 56 | 78 | 5.2 | 13.0 | 0.00 | 0.00 | 0.00 | 43 | 1010.6 |
| 20260505000117 | 56 | 69 | 6.1 | 13.0 | 0.00 | 0.00 | 0.00 | 42 | 1010.5 |
| 20260505000112 | 56 | 73 | 6.1 | 13.0 | 0.00 | 0.00 | 0.00 | 42 | 1010.5 |
| 20260504235911 | 57 | 76 | 5.2 | 12.2 | 0.00 | 0.00 | 0.00 | 42 | 1010.6 |
| 20260504235711 | 57 | 50 | 5.2 | 12.2 | 0.00 | 0.00 | 0.00 | 42 | 1010.5 |
| 20260504235616 | 57 | 71 | 5.2 | 12.2 | 0.00 | 0.00 | 0.00 | 41 | 1010.6 |
| 20260504235509 | 57 | 73 | 5.2 | 12.2 | 0.00 | 0.00 | 0.00 | 41 | 1010.6 |
| 20260504235309 | 57 | 109 | 5.2 | 12.2 | 0.00 | 0.00 | 0.00 | 41 | 1010.5 |
| 20260504235122 | 57 | 22 | 5.2 | 12.2 | 0.00 | 0.00 | 0.00 | 40 | 1010.3 |
| 20260504235116 | 57 | 63 | 4.3 | 11.3 | 0.00 | 0.00 | 0.00 | 41 | 1010.5 |
| 20260504235109 | 57 | 55 | 4.3 | 11.3 | 0.00 | 0.00 | 0.00 | 41 | 1010.5 |
| 20260504234910 | 57 | 30 | 4.3 | 12.2 | 0.00 | 0.00 | 0.00 | 40 | 1010.5 |
| 20260504234743 | 58 | 115 | 6.1 | 12.2 | 0.00 | 0.00 | 0.00 | 41 | 1010.3 |
| 20260504234732 | 57 | 26 | 5.2 | 12.2 | 0.00 | 0.00 | 0.00 | 40 | 1010.3 |
| 20260504234509 | 57 | 26 | 5.2 | 12.2 | 0.00 | 0.00 | 0.00 | 39 | 1010.3 |
| 20260504234306 | 58 | 67 | 5.2 | 12.2 | 0.00 | 0.00 | 0.00 | 40 | 1010.3 |
| 20260504234108 | 58 | 163 | 6.1 | 12.2 | 0.00 | 0.00 | 0.00 | 41 | 1010.3 |
| 20260504233907 | 58 | 51 | 6.1 | 10.4 | 0.00 | 0.00 | 0.00 | 39 | 1010.3 |
| 20260504233707 | 59 | 40 | 6.1 | 10.4 | 0.00 | 0.00 | 0.00 | 37 | 1010.3 |
| 20260504233617 | 59 | 44 | 6.1 | 9.6 | 0.00 | 0.00 | 0.00 | 37 | 1010.3 |
| 20260504233507 | 59 | 5 | 6.1 | 9.6 | 0.00 | 0.00 | 0.00 | 37 | 1010.2 |
| 20260504233307 | 59 | 13 | 6.1 | 10.4 | 0.00 | 0.00 | 0.00 | 36 | 1010.2 |
| 20260504233114 | 59 | 38 | 6.1 | 10.4 | 0.00 | 0.00 | 0.00 | 36 | 1010.3 |
| 20260504233105 | 59 | 37 | 6.1 | 10.4 | 0.00 | 0.00 | 0.00 | 36 | 1010.3 |
| 20260504232904 | 59 | 11 | 6.1 | 10.4 | 0.00 | 0.00 | 0.00 | 36 | 1010.1 |
| 20260504232706 | 59 | 35 | 6.1 | 10.4 | 0.00 | 0.00 | 0.00 | 37 | 1010.2 |
| 20260504232616 | 59 | 38 | 6.1 | 10.4 | 0.00 | 0.00 | 0.00 | 38 | 1010.2 |
| 20260504232506 | 59 | 48 | 6.1 | 10.4 | 0.00 | 0.00 | 0.00 | 37 | 1010.2 |
| 20260504232306 | 59 | 23 | 6.1 | 10.4 | 0.00 | 0.00 | 0.00 | 38 | 1010.1 |
| 20260504232119 | 60 | 29 | 7.8 | 14.8 | 0.00 | 0.00 | 0.00 | 35 | 1010.2 |
| 20260504232113 | 59 | 46 | 7.0 | 10.4 | 0.00 | 0.00 | 0.00 | 37 | 1010.1 |
| 20260504232105 | 59 | 28 | 7.0 | 10.4 | 0.00 | 0.00 | 0.00 | 37 | 1010.1 |
| 20260504231904 | 59 | 46 | 7.0 | 14.8 | 0.00 | 0.00 | 0.00 | 36 | 1010.2 |
| 20260504231730 | 60 | 52 | 7.8 | 14.8 | 0.00 | 0.00 | 0.00 | 35 | 1010.2 |
| 20260504231502 | 60 | 49 | 7.8 | 14.8 | 0.00 | 0.00 | 0.00 | 35 | 1010.1 |
| 20260504231303 | 60 | 41 | 8.7 | 15.6 | 0.00 | 0.00 | 0.00 | 34 | 1010.0 |
| 20260504231115 | 60 | 34 | 8.7 | 15.6 | 0.00 | 0.00 | 0.00 | 34 | 1009.9 |
| 20260504231103 | 60 | 5 | 8.7 | 15.6 | 0.00 | 0.00 | 0.00 | 34 | 1009.9 |
| 20260504230903 | 60 | 26 | 8.7 | 15.6 | 0.00 | 0.00 | 0.00 | 34 | 1010.0 |
| 20260504230701 | 60 | 20 | 8.7 | 15.6 | 0.00 | 0.00 | 0.00 | 34 | 1009.9 |
| 20260504230614 | 60 | 28 | 9.6 | 15.6 | 0.00 | 0.00 | 0.00 | 34 | 1009.9 |
| 20260504230502 | 60 | 5 | 9.6 | 15.6 | 0.00 | 0.00 | 0.00 | 34 | 1009.7 |
| 20260504230302 | 61 | 22 | 9.6 | 15.6 | 0.00 | 0.00 | 0.00 | 33 | 1009.5 |
| 20260504230115 | 61 | 5 | 10.4 | 15.6 | 0.00 | 0.00 | 0.00 | 33 | 1009.4 |
| 20260504225901 | 61 | 348 | 10.4 | 18.2 | 0.00 | 0.00 | 0.00 | 32 | 1009.2 |
| 20260504225702 | 61 | 355 | 8.7 | 18.2 | 0.00 | 0.00 | 0.00 | 32 | 1009.2 |
| 20260504225615 | 62 | 36 | 8.7 | 18.2 | 0.00 | 0.00 | 0.00 | 32 | 1009.2 |
| 20260504225459 | 62 | 331 | 7.0 | 18.2 | 0.00 | 0.00 | 0.00 | 32 | 1009.1 |
| 20260504225259 | 62 | 355 | 6.1 | 18.2 | 0.00 | 0.00 | 0.00 | 31 | 1009.2 |
| 20260504225125 | 64 | 42 | 1.7 | 4.3 | 0.00 | 0.00 | 0.00 | 29 | 1008.6 |
| 20260504225114 | 63 | 10 | 5.2 | 18.2 | 0.00 | 0.00 | 0.00 | 30 | 1009.1 |
| 20260504225100 | 63 | 36 | 5.2 | 18.2 | 0.00 | 0.00 | 0.00 | 30 | 1008.9 |
| 20260504224859 | 63 | 11 | 4.3 | 11.3 | 0.00 | 0.00 | 0.00 | 29 | 1008.9 |
| 20260504224730 | 63 | 5 | 4.3 | 7.8 | 0.00 | 0.00 | 0.00 | 28 | 1008.9 |
| 20260504224614 | 63 | 355 | 4.3 | 7.8 | 0.00 | 0.00 | 0.00 | 28 | 1008.9 |
| 20260504224459 | 63 | 321 | 4.3 | 7.8 | 0.00 | 0.00 | 0.00 | 29 | 1008.8 |
| 20260504224257 | 64 | 329 | 4.3 | 7.8 | 0.00 | 0.00 | 0.00 | 29 | 1008.9 |
| 20260504224112 | 64 | 338 | 3.5 | 7.8 | 0.00 | 0.00 | 0.00 | 29 | 1008.9 |
| 20260504224058 | 64 | 338 | 3.5 | 7.8 | 0.00 | 0.00 | 0.00 | 29 | 1008.8 |
| 20260504223856 | 64 | 355 | 3.5 | 5.2 | 0.00 | 0.00 | 0.00 | 29 | 1008.8 |
| 20260504223730 | 64 | 5 | 2.6 | 5.2 | 0.00 | 0.00 | 0.00 | 29 | 1008.6 |
| 20260504223613 | 64 | 349 | 2.6 | 5.2 | 0.00 | 0.00 | 0.00 | 29 | 1008.6 |
| 20260504223457 | 64 | 9 | 2.6 | 4.3 | 0.00 | 0.00 | 0.00 | 29 | 1008.6 |
| 20260504223257 | 64 | 38 | 1.7 | 4.3 | 0.00 | 0.00 | 0.00 | 27 | 1008.6 |
| 20260504223055 | 64 | 47 | 1.7 | 4.3 | 0.00 | 0.00 | 0.00 | 29 | 1008.5 |
| 20260504222855 | 64 | 21 | 1.7 | 3.5 | 0.00 | 0.00 | 0.00 | 27 | 1008.5 |
| 20260504222655 | 64 | 56 | 1.7 | 4.3 | 0.00 | 0.00 | 0.00 | 28 | 1008.6 |
| 20260504222613 | 64 | 11 | 1.7 | 5.2 | 0.00 | 0.00 | 0.00 | 28 | 1008.6 |
| 20260504222455 | 64 | 20 | 2.6 | 5.2 | 0.00 | 0.00 | 0.00 | 27 | 1008.8 |
| 20260504222254 | 64 | 30 | 3.5 | 7.8 | 0.00 | 0.00 | 0.00 | 27 | 1008.8 |
| 20260504222114 | 64 | 30 | 3.5 | 7.8 | 0.00 | 0.00 | 0.00 | 28 | 1008.8 |
| 20260504222054 | 64 | 5 | 3.5 | 7.8 | 0.00 | 0.00 | 0.00 | 28 | 1008.8 |
| 20260504221852 | 64 | 9 | 4.3 | 7.8 | 0.00 | 0.00 | 0.00 | 27 | 1008.8 |
| 20260504221653 | 64 | 322 | 5.2 | 8.7 | 0.00 | 0.00 | 0.00 | 27 | 1008.8 |
| 20260504221610 | 64 | 324 | 5.2 | 8.7 | 0.00 | 0.00 | 0.00 | 27 | 1008.8 |
| 20260504221454 | 64 | 315 | 6.1 | 8.7 | 0.00 | 0.00 | 0.00 | 27 | 1008.6 |
| 20260504221253 | 64 | 296 | 6.1 | 9.6 | 0.00 | 0.00 | 0.00 | 28 | 1008.6 |
| 20260504221110 | 64 | 302 | 6.1 | 9.6 | 0.00 | 0.00 | 0.00 | 27 | 1008.6 |
| 20260504221052 | 64 | 300 | 6.1 | 9.6 | 0.00 | 0.00 | 0.00 | 27 | 1008.8 |
| 20260504220853 | 64 | 330 | 5.2 | 9.6 | 0.00 | 0.00 | 0.00 | 28 | 1008.8 |
| 20260504220651 | 64 | 344 | 5.2 | 9.6 | 0.00 | 0.00 | 0.00 | 29 | 1008.8 |
| 20260504220611 | 64 | 338 | 5.2 | 9.6 | 0.00 | 0.00 | 0.00 | 29 | 1008.8 |
| 20260504220452 | 64 | 355 | 5.2 | 9.6 | 0.00 | 0.00 | 0.00 | 28 | 1008.8 |
| 20260504220247 | 64 | 21 | 5.2 | 9.6 | 0.00 | 0.00 | 0.00 | 28 | 1008.8 |
| 20260504220109 | 64 | 9 | 5.2 | 13.0 | 0.00 | 0.00 | 0.00 | 27 | 1008.8 |
| 20260504220050 | 64 | 9 | 5.2 | 13.0 | 0.00 | 0.00 | 0.00 | 27 | 1008.8 |
| 20260504215848 | 64 | 52 | 4.3 | 13.0 | 0.00 | 0.00 | 0.00 | 29 | 1008.8 |
| 20260504215646 | 64 | 29 | 3.5 | 13.0 | 0.00 | 0.00 | 0.00 | 28 | 1008.8 |
| 20260504215610 | 64 | 20 | 3.5 | 13.0 | 0.00 | 0.00 | 0.00 | 28 | 1008.8 |
| 20260504215446 | 64 | 5 | 3.5 | 13.0 | 0.00 | 0.00 | 0.00 | 30 | 1008.8 |
| 20260504215246 | 64 | 22 | 2.6 | 13.0 | 0.00 | 0.00 | 0.00 | 30 | 1008.8 |
| 20260504215111 | 64 | 285 | 1.7 | 7.0 | 0.00 | 0.00 | 0.00 | 28 | 1008.8 |
| 20260504215047 | 64 | 288 | 1.7 | 6.1 | 0.00 | 0.00 | 0.00 | 28 | 1008.9 |
| 20260504214846 | 64 | 44 | 4.3 | 16.5 | 0.00 | 0.00 | 0.00 | 29 | 1008.9 |
| 20260504214647 | 63 | 153 | 6.1 | 16.5 | 0.00 | 0.00 | 0.00 | 29 | 1008.9 |
| 20260504214615 | 64 | 273 | 7.8 | 16.5 | 0.00 | 0.00 | 0.00 | 29 | 1009.1 |
| 20260504214611 | 63 | 217 | 6.1 | 16.5 | 0.00 | 0.00 | 0.00 | 29 | 1008.9 |
| 20260504214447 | 63 | 217 | 7.0 | 16.5 | 0.00 | 0.00 | 0.00 | 27 | 1009.0 |
| 20260504214248 | 64 | 142 | 7.8 | 16.5 | 0.00 | 0.00 | 0.00 | 29 | 1009.1 |
| 20260504214050 | 64 | 322 | 7.8 | 16.5 | 0.00 | 0.00 | 0.00 | 29 | 1009.2 |
| 20260504213847 | 64 | 338 | 7.0 | 16.5 | 0.00 | 0.00 | 0.00 | 30 | 1009.1 |
| 20260504213646 | 63 | 314 | 6.1 | 8.7 | 0.00 | 0.00 | 0.00 | 29 | 1009.1 |
| 20260504213610 | 63 | 303 | 6.1 | 8.7 | 0.00 | 0.00 | 0.00 | 29 | 1009.1 |
| 20260504213446 | 63 | 324 | 6.1 | 8.7 | 0.00 | 0.00 | 0.00 | 29 | 1009.1 |
| 20260504213248 | 63 | 305 | 6.1 | 9.6 | 0.00 | 0.00 | 0.00 | 28 | 1009.1 |
| 20260504213111 | 63 | 332 | 6.1 | 9.6 | 0.00 | 0.00 | 0.00 | 30 | 1009.2 |
| 20260504213045 | 63 | 330 | 6.1 | 9.6 | 0.00 | 0.00 | 0.00 | 30 | 1009.2 |
| 20260504212845 | 63 | 334 | 6.1 | 9.6 | 0.00 | 0.00 | 0.00 | 29 | 1009.2 |
| 20260504212648 | 63 | 310 | 7.0 | 10.4 | 0.00 | 0.00 | 0.00 | 29 | 1009.2 |
| 20260504212615 | 63 | 346 | 7.8 | 14.8 | 0.00 | 0.00 | 0.00 | 28 | 1009.2 |
| 20260504212609 | 63 | 313 | 7.0 | 12.2 | 0.00 | 0.00 | 0.00 | 29 | 1009.2 |
| 20260504212444 | 63 | 317 | 7.8 | 14.8 | 0.00 | 0.00 | 0.00 | 28 | 1009.2 |
| 20260504212244 | 63 | 306 | 7.8 | 14.8 | 0.00 | 0.00 | 0.00 | 29 | 1009.2 |
| 20260504212229 | 63 | 355 | 7.8 | 14.8 | 0.00 | 0.00 | 0.00 | 29 | 1009.1 |
| 20260504212046 | 63 | 327 | 7.8 | 14.8 | 0.00 | 0.00 | 0.00 | 28 | 1009.2 |
| 20260504211842 | 63 | 335 | 8.7 | 14.8 | 0.00 | 0.00 | 0.00 | 28 | 1009.2 |
| 20260504211720 | 63 | 336 | 7.8 | 14.8 | 0.00 | 0.00 | 0.00 | 28 | 1009.1 |
| 20260504211443 | 64 | 355 | 7.8 | 13.0 | 0.00 | 0.00 | 0.00 | 28 | 1009.1 |
| 20260504211243 | 64 | 344 | 7.8 | 13.0 | 0.00 | 0.00 | 0.00 | 28 | 1009.2 |
| 20260504211109 | 64 | 347 | 8.7 | 13.0 | 0.00 | 0.00 | 0.00 | 29 | 1009.1 |
| 20260504211042 | 64 | 340 | 8.7 | 13.0 | 0.00 | 0.00 | 0.00 | 29 | 1009.1 |
| 20260504210842 | 64 | 5 | 8.7 | 13.9 | 0.00 | 0.00 | 0.00 | 30 | 1009.1 |
| 20260504210642 | 64 | 344 | 8.7 | 13.9 | 0.00 | 0.00 | 0.00 | 29 | 1009.1 |
| 20260504210610 | 64 | 35 | 8.7 | 13.9 | 0.00 | 0.00 | 0.00 | 29 | 1009.1 |
| 20260504210441 | 64 | 334 | 8.7 | 13.9 | 0.00 | 0.00 | 0.00 | 29 | 1009.2 |
| 20260504210243 | 64 | 355 | 8.7 | 13.9 | 0.00 | 0.00 | 0.00 | 29 | 1009.2 |
| 20260504210110 | 64 | 0 | 8.7 | 13.9 | 0.00 | 0.00 | 0.00 | 29 | 1009.2 |
| 20260504210043 | 64 | 345 | 8.7 | 13.9 | 0.00 | 0.00 | 0.00 | 29 | 1009.2 |
| 20260504205843 | 64 | 347 | 7.8 | 13.9 | 0.00 | 0.00 | 0.00 | 29 | 1009.2 |
| 20260504205641 | 64 | 355 | 7.8 | 13.9 | 0.00 | 0.00 | 0.00 | 29 | 1009.2 |
| 20260504205617 | 64 | 346 | 11.3 | 17.4 | 0.00 | 0.00 | 0.00 | 28 | 1009.4 |
| 20260504205611 | 64 | 338 | 7.8 | 13.9 | 0.00 | 0.00 | 0.00 | 29 | 1009.2 |
| 20260504205441 | 64 | 11 | 7.0 | 13.9 | 0.00 | 0.00 | 0.00 | 27 | 1009.4 |
| 20260504205240 | 64 | 14 | 7.8 | 13.0 | 0.00 | 0.00 | 0.00 | 29 | 1009.4 |
| 20260504205109 | 64 | 41 | 7.8 | 15.6 | 0.00 | 0.00 | 0.00 | 28 | 1009.4 |
| 20260504205041 | 64 | 37 | 7.8 | 15.6 | 0.00 | 0.00 | 0.00 | 29 | 1009.2 |
| 20260504204841 | 64 | 355 | 8.7 | 15.6 | 0.00 | 0.00 | 0.00 | 28 | 1009.2 |
| 20260504204725 | 64 | 32 | 10.4 | 16.5 | 0.00 | 0.00 | 0.00 | 28 | 1009.4 |
| 20260504204610 | 64 | 5 | 10.4 | 16.5 | 0.00 | 0.00 | 0.00 | 28 | 1009.4 |
| 20260504204438 | 64 | 0 | 10.4 | 16.5 | 0.00 | 0.00 | 0.00 | 28 | 1009.4 |
| 20260504204238 | 64 | 346 | 11.3 | 17.4 | 0.00 | 0.00 | 0.00 | 28 | 1009.4 |
| 20260504204232 | 65 | 42 | 10.4 | 17.4 | 0.00 | 0.00 | 0.00 | 28 | 1009.1 |
| 20260504204037 | 65 | 343 | 11.3 | 17.4 | 0.00 | 0.00 | 0.00 | 28 | 1009.4 |
| 20260504203837 | 65 | 15 | 10.4 | 17.4 | 0.00 | 0.00 | 0.00 | 28 | 1009.2 |
| 20260504203721 | 65 | 15 | 10.4 | 17.4 | 0.00 | 0.00 | 0.00 | 28 | 1009.1 |
| 20260504203437 | 65 | 15 | 10.4 | 17.4 | 0.00 | 0.00 | 0.00 | 27 | 1009.1 |
| 20260504203235 | 65 | 5 | 9.6 | 16.5 | 0.00 | 0.00 | 0.00 | 27 | 1009.2 |
| 20260504203115 | 66 | 0 | 10.4 | 16.5 | 0.00 | 0.00 | 0.00 | 27 | 1009.2 |
| 20260504203110 | 65 | 344 | 9.6 | 16.5 | 0.00 | 0.00 | 0.00 | 26 | 1009.2 |
| 20260504203035 | 66 | 331 | 10.4 | 16.5 | 0.00 | 0.00 | 0.00 | 26 | 1009.2 |
| 20260504202836 | 66 | 338 | 10.4 | 16.5 | 0.00 | 0.00 | 0.00 | 27 | 1009.2 |
| 20260504202719 | 66 | 24 | 10.4 | 16.5 | 0.00 | 0.00 | 0.00 | 27 | 1009.2 |
| 20260504202434 | 66 | 342 | 10.4 | 16.5 | 0.00 | 0.00 | 0.00 | 27 | 1009.2 |
| 20260504202233 | 66 | 19 | 10.4 | 16.5 | 0.00 | 0.00 | 0.00 | 27 | 1009.4 |
| 20260504202109 | 66 | 351 | 11.3 | 16.5 | 0.00 | 0.00 | 0.00 | 26 | 1009.2 |
| 20260504202031 | 66 | 346 | 10.4 | 17.4 | 0.00 | 0.00 | 0.00 | 27 | 1009.2 |
| 20260504201831 | 66 | 355 | 11.3 | 17.4 | 0.00 | 0.00 | 0.00 | 26 | 1009.2 |
| 20260504201630 | 66 | 350 | 11.3 | 17.4 | 0.00 | 0.00 | 0.00 | 28 | 1009.4 |
| 20260504201611 | 66 | 9 | 11.3 | 17.4 | 0.00 | 0.00 | 0.00 | 28 | 1009.4 |
| 20260504201431 | 65 | 32 | 11.3 | 17.4 | 0.00 | 0.00 | 0.00 | 27 | 1009.4 |
| 20260504201229 | 65 | 355 | 11.3 | 17.4 | 0.00 | 0.00 | 0.00 | 27 | 1009.4 |
| 20260504201110 | 65 | 300 | 10.4 | 17.4 | 0.00 | 0.00 | 0.00 | 29 | 1009.4 |
| 20260504201029 | 65 | 34 | 10.4 | 17.4 | 0.00 | 0.00 | 0.00 | 28 | 1009.5 |
| 20260504200828 | 65 | 343 | 10.4 | 17.4 | 0.00 | 0.00 | 0.00 | 28 | 1009.5 |
| 20260504200628 | 65 | 330 | 10.4 | 17.4 | 0.00 | 0.00 | 0.00 | 28 | 1009.5 |
| 20260504200610 | 65 | 340 | 10.4 | 17.4 | 0.00 | 0.00 | 0.00 | 28 | 1009.5 |
| 20260504200427 | 65 | 296 | 10.4 | 16.5 | 0.00 | 0.00 | 0.00 | 28 | 1009.5 |
| 20260504200226 | 65 | 333 | 10.4 | 16.5 | 0.00 | 0.00 | 0.00 | 28 | 1009.5 |
| 20260504200111 | 65 | 306 | 10.4 | 16.5 | 0.00 | 0.00 | 0.00 | 30 | 1009.5 |
| 20260504200027 | 65 | 313 | 10.4 | 16.5 | 0.00 | 0.00 | 0.00 | 30 | 1009.5 |
| 20260504195827 | 65 | 307 | 11.3 | 16.5 | 0.00 | 0.00 | 0.00 | 29 | 1009.5 |
| 20260504195628 | 64 | 342 | 10.4 | 16.5 | 0.00 | 0.00 | 0.00 | 30 | 1009.5 |
| 20260504195610 | 64 | 335 | 10.4 | 16.5 | 0.00 | 0.00 | 0.00 | 29 | 1009.5 |
| 20260504195426 | 64 | 309 | 10.4 | 18.2 | 0.00 | 0.00 | 0.00 | 29 | 1009.5 |
| 20260504195226 | 65 | 322 | 10.4 | 18.2 | 0.00 | 0.00 | 0.00 | 28 | 1009.6 |
| 20260504195116 | 66 | 327 | 10.4 | 18.2 | 0.00 | 0.00 | 0.00 | 26 | 1009.5 |
| 20260504195110 | 65 | 324 | 10.4 | 18.2 | 0.00 | 0.00 | 0.00 | 28 | 1009.6 |
| 20260504195027 | 65 | 328 | 10.4 | 18.2 | 0.00 | 0.00 | 0.00 | 28 | 1009.6 |
| 20260504194827 | 66 | 327 | 10.4 | 18.2 | 0.00 | 0.00 | 0.00 | 27 | 1009.5 |
| 20260504194736 | 65 | 355 | 9.6 | 13.9 | 0.00 | 0.00 | 0.00 | 26 | 1009.6 |
| 20260504194718 | 66 | 18 | 10.4 | 18.2 | 0.00 | 0.00 | 0.00 | 26 | 1009.5 |
| 20260504194427 | 66 | 313 | 9.6 | 14.8 | 0.00 | 0.00 | 0.00 | 27 | 1009.5 |
| 20260504194231 | 65 | 342 | 9.6 | 13.9 | 0.00 | 0.00 | 0.00 | 27 | 1009.6 |
| 20260504194026 | 65 | 340 | 8.7 | 13.9 | 0.00 | 0.00 | 0.00 | 26 | 1009.5 |
| 20260504193827 | 65 | 338 | 8.7 | 13.9 | 0.00 | 0.00 | 0.00 | 27 | 1009.5 |
| 20260504193626 | 65 | 5 | 8.7 | 15.6 | 0.00 | 0.00 | 0.00 | 28 | 1009.5 |
| 20260504193610 | 65 | 339 | 8.7 | 15.6 | 0.00 | 0.00 | 0.00 | 28 | 1009.5 |
| 20260504193427 | 65 | 0 | 9.6 | 16.5 | 0.00 | 0.00 | 0.00 | 26 | 1009.5 |
| 20260504193225 | 65 | 5 | 9.6 | 16.5 | 0.00 | 0.00 | 0.00 | 27 | 1009.5 |
| 20260504193109 | 65 | 341 | 10.4 | 17.4 | 0.00 | 0.00 | 0.00 | 28 | 1009.5 |
| 20260504193028 | 65 | 330 | 10.4 | 17.4 | 0.00 | 0.00 | 0.00 | 27 | 1009.5 |
| 20260504192826 | 65 | 330 | 10.4 | 17.4 | 0.00 | 0.00 | 0.00 | 29 | 1009.5 |
| 20260504192628 | 65 | 0 | 11.3 | 17.4 | 0.00 | 0.00 | 0.00 | 27 | 1009.6 |
| 20260504192609 | 64 | 326 | 11.3 | 17.4 | 0.00 | 0.00 | 0.00 | 28 | 1009.6 |
| 20260504192427 | 64 | 349 | 12.2 | 17.4 | 0.00 | 0.00 | 0.00 | 27 | 1009.5 |
| 20260504192225 | 64 | 339 | 12.2 | 18.2 | 0.00 | 0.00 | 0.00 | 27 | 1009.5 |
| 20260504192109 | 64 | 355 | 12.2 | 18.2 | 0.00 | 0.00 | 0.00 | 27 | 1009.5 |
| 20260504192028 | 64 | 0 | 12.2 | 18.2 | 0.00 | 0.00 | 0.00 | 27 | 1009.5 |
| 20260504191826 | 64 | 331 | 13.0 | 21.7 | 0.00 | 0.00 | 0.00 | 27 | 1009.5 |
| 20260504191628 | 65 | 319 | 12.2 | 21.7 | 0.00 | 0.00 | 0.00 | 28 | 1009.4 |
| 20260504191609 | 65 | 323 | 12.2 | 21.7 | 0.00 | 0.00 | 0.00 | 28 | 1009.4 |
| 20260504191427 | 65 | 321 | 12.2 | 21.7 | 0.00 | 0.00 | 0.00 | 27 | 1009.4 |
| 20260504191226 | 65 | 324 | 11.3 | 21.7 | 0.00 | 0.00 | 0.00 | 27 | 1009.4 |
| 20260504191110 | 65 | 299 | 10.4 | 21.7 | 0.00 | 0.00 | 0.00 | 26 | 1009.4 |
| 20260504191027 | 65 | 319 | 10.4 | 21.7 | 0.00 | 0.00 | 0.00 | 26 | 1009.4 |
| 20260504190825 | 65 | 340 | 9.6 | 17.4 | 0.00 | 0.00 | 0.00 | 26 | 1009.4 |
| 20260504190626 | 66 | 38 | 9.6 | 17.4 | 0.00 | 0.00 | 0.00 | 25 | 1009.4 |
| 20260504190609 | 66 | 17 | 9.6 | 17.4 | 0.00 | 0.00 | 0.00 | 25 | 1009.4 |
| 20260504190426 | 66 | 46 | 9.6 | 17.4 | 0.00 | 0.00 | 0.00 | 26 | 1009.4 |
| 20260504190227 | 66 | 319 | 10.4 | 18.2 | 0.00 | 0.00 | 0.00 | 25 | 1009.1 |
| 20260504190115 | 67 | 13 | 10.4 | 18.2 | 0.00 | 0.00 | 0.00 | 25 | 1009.1 |
| 20260504190110 | 66 | 336 | 10.4 | 18.2 | 0.00 | 0.00 | 0.00 | 25 | 1009.2 |
| 20260504190026 | 66 | 348 | 11.3 | 18.2 | 0.00 | 0.00 | 0.00 | 25 | 1009.2 |
| 20260504185827 | 66 | 355 | 10.4 | 18.2 | 0.00 | 0.00 | 0.00 | 25 | 1009.1 |
| 20260504185718 | 67 | 5 | 10.4 | 18.2 | 0.00 | 0.00 | 0.00 | 25 | 1009.1 |
| 20260504185427 | 67 | 348 | 9.6 | 18.2 | 0.00 | 0.00 | 0.00 | 24 | 1009.1 |
| 20260504185226 | 67 | 43 | 9.6 | 17.4 | 0.00 | 0.00 | 0.00 | 24 | 1009.1 |
| 20260504185110 | 67 | 9 | 8.7 | 17.4 | 0.00 | 0.00 | 0.00 | 24 | 1009.1 |
| 20260504185025 | 67 | 349 | 7.8 | 15.6 | 0.00 | 0.00 | 0.00 | 23 | 1009.2 |
| 20260504184825 | 68 | 34 | 7.0 | 15.6 | 0.00 | 0.00 | 0.00 | 22 | 1009.2 |